<?xml version="1.0" encoding="UTF-8" standalone="no" ?>
<gpx xmlns="http://www.topografix.com/GPX/1/1" xmlns:xsi="http://www.w3.org/2001/XMLSchema-instance" xsi:schemaLocation="http://www.topografix.com/GPX/1/1 http://www.topografix.com/GPX/1/1/gpx.xsd" version="1.1" creator="VisuGPX - https://www.visugpx.com">
  <metadata>
    <name>15008823-PAT CHAMROUSSE G2</name>
  </metadata>
  <trk>
    <name><![CDATA[15008823-PAT CHAMROUSSE G2]]></name>
    <trkseg>
      <trkpt lat="45.10463" lon="5.87694">
        <ele>1735</ele>
        <time>2022-06-22T16:55:45Z</time>
      </trkpt>
      <trkpt lat="45.10461" lon="5.87698">
        <ele>1735</ele>
        <time>2022-06-22T16:55:50Z</time>
      </trkpt>
      <trkpt lat="45.10442" lon="5.87742">
        <ele>1738</ele>
        <time>2022-06-22T16:56:38Z</time>
      </trkpt>
      <trkpt lat="45.10367" lon="5.8789">
        <ele>1738</ele>
        <time>2022-06-22T16:59:30Z</time>
      </trkpt>
      <trkpt lat="45.10343" lon="5.87951">
        <ele>1735</ele>
        <time>2022-06-22T17:00:36Z</time>
      </trkpt>
      <trkpt lat="45.10337" lon="5.87973">
        <ele>1733</ele>
        <time>2022-06-22T17:00:58Z</time>
      </trkpt>
      <trkpt lat="45.10331" lon="5.87991">
        <ele>1732</ele>
        <time>2022-06-22T17:01:17Z</time>
      </trkpt>
      <trkpt lat="45.10324" lon="5.88001">
        <ele>1730</ele>
        <time>2022-06-22T17:01:30Z</time>
      </trkpt>
      <trkpt lat="45.10311" lon="5.88006">
        <ele>1727</ele>
        <time>2022-06-22T17:01:48Z</time>
      </trkpt>
      <trkpt lat="45.103" lon="5.88006">
        <ele>1724</ele>
        <time>2022-06-22T17:02:02Z</time>
      </trkpt>
      <trkpt lat="45.10297" lon="5.87981">
        <ele>1725</ele>
        <time>2022-06-22T17:02:26Z</time>
      </trkpt>
      <trkpt lat="45.10311" lon="5.87906">
        <ele>1727</ele>
        <time>2022-06-22T17:03:39Z</time>
      </trkpt>
      <trkpt lat="45.10322" lon="5.87882">
        <ele>1726</ele>
        <time>2022-06-22T17:04:06Z</time>
      </trkpt>
      <trkpt lat="45.1033" lon="5.87858">
        <ele>1725</ele>
        <time>2022-06-22T17:04:31Z</time>
      </trkpt>
      <trkpt lat="45.10337" lon="5.87831">
        <ele>1723</ele>
        <time>2022-06-22T17:04:58Z</time>
      </trkpt>
      <trkpt lat="45.10346" lon="5.87779">
        <ele>1719</ele>
        <time>2022-06-22T17:05:49Z</time>
      </trkpt>
      <trkpt lat="45.10352" lon="5.87725">
        <ele>1715</ele>
        <time>2022-06-22T17:06:40Z</time>
      </trkpt>
      <trkpt lat="45.10351" lon="5.87706">
        <ele>1714</ele>
        <time>2022-06-22T17:06:58Z</time>
      </trkpt>
      <trkpt lat="45.10356" lon="5.87701">
        <ele>1715</ele>
        <time>2022-06-22T17:07:07Z</time>
      </trkpt>
      <trkpt lat="45.1036" lon="5.8769">
        <ele>1715</ele>
        <time>2022-06-22T17:07:18Z</time>
      </trkpt>
      <trkpt lat="45.1036" lon="5.87686">
        <ele>1715</ele>
        <time>2022-06-22T17:07:22Z</time>
      </trkpt>
      <trkpt lat="45.1036" lon="5.8769">
        <ele>1715</ele>
        <time>2022-06-22T17:07:26Z</time>
      </trkpt>
      <trkpt lat="45.10356" lon="5.87701">
        <ele>1715</ele>
        <time>2022-06-22T17:07:37Z</time>
      </trkpt>
      <trkpt lat="45.10351" lon="5.87706">
        <ele>1714</ele>
        <time>2022-06-22T17:07:46Z</time>
      </trkpt>
      <trkpt lat="45.10346" lon="5.87609">
        <ele>1707</ele>
        <time>2022-06-22T17:09:17Z</time>
      </trkpt>
      <trkpt lat="45.10344" lon="5.87587">
        <ele>1706</ele>
        <time>2022-06-22T17:09:38Z</time>
      </trkpt>
      <trkpt lat="45.10339" lon="5.87505">
        <ele>1700</ele>
        <time>2022-06-22T17:10:56Z</time>
      </trkpt>
      <trkpt lat="45.10332" lon="5.87495">
        <ele>1698</ele>
        <time>2022-06-22T17:11:09Z</time>
      </trkpt>
      <trkpt lat="45.10319" lon="5.8749">
        <ele>1696</ele>
        <time>2022-06-22T17:11:27Z</time>
      </trkpt>
      <trkpt lat="45.1031" lon="5.8749">
        <ele>1695</ele>
        <time>2022-06-22T17:11:39Z</time>
      </trkpt>
      <trkpt lat="45.10274" lon="5.87516">
        <ele>1692</ele>
        <time>2022-06-22T17:12:33Z</time>
      </trkpt>
      <trkpt lat="45.10208" lon="5.87572">
        <ele>1690</ele>
        <time>2022-06-22T17:14:15Z</time>
      </trkpt>
      <trkpt lat="45.10186" lon="5.87608">
        <ele>1690</ele>
        <time>2022-06-22T17:15:00Z</time>
      </trkpt>
      <trkpt lat="45.10177" lon="5.87632">
        <ele>1689</ele>
        <time>2022-06-22T17:15:26Z</time>
      </trkpt>
      <trkpt lat="45.10155" lon="5.87723">
        <ele>1689</ele>
        <time>2022-06-22T17:16:56Z</time>
      </trkpt>
      <trkpt lat="45.10154" lon="5.87729">
        <ele>1690</ele>
        <time>2022-06-22T17:17:02Z</time>
      </trkpt>
      <trkpt lat="45.10145" lon="5.87726">
        <ele>1688</ele>
        <time>2022-06-22T17:17:15Z</time>
      </trkpt>
      <trkpt lat="45.10134" lon="5.87735">
        <ele>1687</ele>
        <time>2022-06-22T17:17:32Z</time>
      </trkpt>
      <trkpt lat="45.10124" lon="5.8773">
        <ele>1685</ele>
        <time>2022-06-22T17:17:46Z</time>
      </trkpt>
      <trkpt lat="45.10118" lon="5.87715">
        <ele>1683</ele>
        <time>2022-06-22T17:18:02Z</time>
      </trkpt>
      <trkpt lat="45.10096" lon="5.87706">
        <ele>1679</ele>
        <time>2022-06-22T17:18:32Z</time>
      </trkpt>
      <trkpt lat="45.10059" lon="5.87686">
        <ele>1673</ele>
        <time>2022-06-22T17:19:25Z</time>
      </trkpt>
      <trkpt lat="45.10049" lon="5.87682">
        <ele>1671</ele>
        <time>2022-06-22T17:19:39Z</time>
      </trkpt>
      <trkpt lat="45.10045" lon="5.87683">
        <ele>1671</ele>
        <time>2022-06-22T17:19:45Z</time>
      </trkpt>
      <trkpt lat="45.1004" lon="5.8768">
        <ele>1670</ele>
        <time>2022-06-22T17:19:52Z</time>
      </trkpt>
      <trkpt lat="45.10028" lon="5.87686">
        <ele>1668</ele>
        <time>2022-06-22T17:20:09Z</time>
      </trkpt>
      <trkpt lat="45.10016" lon="5.87699">
        <ele>1665</ele>
        <time>2022-06-22T17:20:29Z</time>
      </trkpt>
      <trkpt lat="45.10005" lon="5.8781">
        <ele>1652</ele>
        <time>2022-06-22T17:22:15Z</time>
      </trkpt>
      <trkpt lat="45.1" lon="5.8783">
        <ele>1648</ele>
        <time>2022-06-22T17:22:35Z</time>
      </trkpt>
      <trkpt lat="45.09993" lon="5.87841">
        <ele>1646</ele>
        <time>2022-06-22T17:22:49Z</time>
      </trkpt>
      <trkpt lat="45.09985" lon="5.87838">
        <ele>1644</ele>
        <time>2022-06-22T17:23:00Z</time>
      </trkpt>
      <trkpt lat="45.09972" lon="5.87823">
        <ele>1642</ele>
        <time>2022-06-22T17:23:22Z</time>
      </trkpt>
      <trkpt lat="45.09964" lon="5.87804">
        <ele>1642</ele>
        <time>2022-06-22T17:23:43Z</time>
      </trkpt>
      <trkpt lat="45.09958" lon="5.87798">
        <ele>1641</ele>
        <time>2022-06-22T17:23:53Z</time>
      </trkpt>
      <trkpt lat="45.09958" lon="5.87796">
        <ele>1641</ele>
        <time>2022-06-22T17:23:54Z</time>
      </trkpt>
      <trkpt lat="45.09955" lon="5.87798">
        <ele>1640</ele>
        <time>2022-06-22T17:23:59Z</time>
      </trkpt>
      <trkpt lat="45.09938" lon="5.87815">
        <ele>1635</ele>
        <time>2022-06-22T17:24:27Z</time>
      </trkpt>
      <trkpt lat="45.0989" lon="5.87982">
        <ele>1622</ele>
        <time>2022-06-22T17:27:17Z</time>
      </trkpt>
      <trkpt lat="45.09889" lon="5.87994">
        <ele>1621</ele>
        <time>2022-06-22T17:27:28Z</time>
      </trkpt>
      <trkpt lat="45.09896" lon="5.88027">
        <ele>1622</ele>
        <time>2022-06-22T17:28:00Z</time>
      </trkpt>
      <trkpt lat="45.0994" lon="5.88084">
        <ele>1628</ele>
        <time>2022-06-22T17:29:20Z</time>
      </trkpt>
      <trkpt lat="45.09993" lon="5.88147">
        <ele>1638</ele>
        <time>2022-06-22T17:30:52Z</time>
      </trkpt>
      <trkpt lat="45.10018" lon="5.88183">
        <ele>1643</ele>
        <time>2022-06-22T17:31:40Z</time>
      </trkpt>
      <trkpt lat="45.10026" lon="5.88208">
        <ele>1645</ele>
        <time>2022-06-22T17:32:06Z</time>
      </trkpt>
      <trkpt lat="45.10034" lon="5.88221">
        <ele>1646</ele>
        <time>2022-06-22T17:32:22Z</time>
      </trkpt>
      <trkpt lat="45.10069" lon="5.88273">
        <ele>1651</ele>
        <time>2022-06-22T17:33:30Z</time>
      </trkpt>
      <trkpt lat="45.10106" lon="5.88319">
        <ele>1656</ele>
        <time>2022-06-22T17:34:35Z</time>
      </trkpt>
      <trkpt lat="45.10112" lon="5.88336">
        <ele>1657</ele>
        <time>2022-06-22T17:34:53Z</time>
      </trkpt>
      <trkpt lat="45.10125" lon="5.8844">
        <ele>1654</ele>
        <time>2022-06-22T17:36:33Z</time>
      </trkpt>
      <trkpt lat="45.10134" lon="5.88474">
        <ele>1654</ele>
        <time>2022-06-22T17:37:07Z</time>
      </trkpt>
      <trkpt lat="45.1014" lon="5.88503">
        <ele>1654</ele>
        <time>2022-06-22T17:37:35Z</time>
      </trkpt>
      <trkpt lat="45.10134" lon="5.88474">
        <ele>1654</ele>
        <time>2022-06-22T17:38:04Z</time>
      </trkpt>
      <trkpt lat="45.10125" lon="5.8844">
        <ele>1654</ele>
        <time>2022-06-22T17:38:38Z</time>
      </trkpt>
      <trkpt lat="45.10129" lon="5.88492">
        <ele>1653</ele>
        <time>2022-06-22T17:39:27Z</time>
      </trkpt>
      <trkpt lat="45.10127" lon="5.8857">
        <ele>1651</ele>
        <time>2022-06-22T17:40:41Z</time>
      </trkpt>
      <trkpt lat="45.10119" lon="5.8865">
        <ele>1650</ele>
        <time>2022-06-22T17:41:57Z</time>
      </trkpt>
      <trkpt lat="45.10133" lon="5.88724">
        <ele>1653</ele>
        <time>2022-06-22T17:43:09Z</time>
      </trkpt>
      <trkpt lat="45.10131" lon="5.88729">
        <ele>1653</ele>
        <time>2022-06-22T17:43:14Z</time>
      </trkpt>
      <trkpt lat="45.10127" lon="5.88738">
        <ele>1653</ele>
        <time>2022-06-22T17:43:25Z</time>
      </trkpt>
      <trkpt lat="45.10091" lon="5.88745">
        <ele>1651</ele>
        <time>2022-06-22T17:44:13Z</time>
      </trkpt>
      <trkpt lat="45.10083" lon="5.88743">
        <ele>1651</ele>
        <time>2022-06-22T17:44:24Z</time>
      </trkpt>
      <trkpt lat="45.1009" lon="5.88777">
        <ele>1653</ele>
        <time>2022-06-22T17:44:57Z</time>
      </trkpt>
      <trkpt lat="45.10095" lon="5.88788">
        <ele>1654</ele>
        <time>2022-06-22T17:45:10Z</time>
      </trkpt>
      <trkpt lat="45.10127" lon="5.88835">
        <ele>1656</ele>
        <time>2022-06-22T17:46:11Z</time>
      </trkpt>
      <trkpt lat="45.10155" lon="5.88869">
        <ele>1659</ele>
        <time>2022-06-22T17:47:00Z</time>
      </trkpt>
      <trkpt lat="45.10177" lon="5.88903">
        <ele>1663</ele>
        <time>2022-06-22T17:47:44Z</time>
      </trkpt>
      <trkpt lat="45.10184" lon="5.88916">
        <ele>1665</ele>
        <time>2022-06-22T17:47:59Z</time>
      </trkpt>
      <trkpt lat="45.10185" lon="5.88953">
        <ele>1671</ele>
        <time>2022-06-22T17:48:34Z</time>
      </trkpt>
      <trkpt lat="45.10191" lon="5.88965">
        <ele>1673</ele>
        <time>2022-06-22T17:48:48Z</time>
      </trkpt>
      <trkpt lat="45.10223" lon="5.88991">
        <ele>1674</ele>
        <time>2022-06-22T17:49:37Z</time>
      </trkpt>
      <trkpt lat="45.10235" lon="5.89007">
        <ele>1674</ele>
        <time>2022-06-22T17:49:59Z</time>
      </trkpt>
      <trkpt lat="45.10244" lon="5.89023">
        <ele>1676</ele>
        <time>2022-06-22T17:50:18Z</time>
      </trkpt>
      <trkpt lat="45.10252" lon="5.89047">
        <ele>1680</ele>
        <time>2022-06-22T17:50:43Z</time>
      </trkpt>
      <trkpt lat="45.10256" lon="5.89072">
        <ele>1686</ele>
        <time>2022-06-22T17:51:07Z</time>
      </trkpt>
      <trkpt lat="45.10273" lon="5.8914">
        <ele>1697</ele>
        <time>2022-06-22T17:52:15Z</time>
      </trkpt>
      <trkpt lat="45.10277" lon="5.89149">
        <ele>1698</ele>
        <time>2022-06-22T17:52:25Z</time>
      </trkpt>
      <trkpt lat="45.103" lon="5.89184">
        <ele>1702</ele>
        <time>2022-06-22T17:53:10Z</time>
      </trkpt>
      <trkpt lat="45.10313" lon="5.89201">
        <ele>1702</ele>
        <time>2022-06-22T17:53:34Z</time>
      </trkpt>
      <trkpt lat="45.10313" lon="5.89201">
        <ele>1702</ele>
        <time>2022-06-22T17:53:34Z</time>
      </trkpt>
      <trkpt lat="45.10313" lon="5.89201">
        <ele>1702</ele>
        <time>2022-06-22T17:53:34Z</time>
      </trkpt>
      <trkpt lat="45.1033" lon="5.89218">
        <ele>1702</ele>
        <time>2022-06-22T17:54:02Z</time>
      </trkpt>
      <trkpt lat="45.10335" lon="5.89226">
        <ele>1702</ele>
        <time>2022-06-22T17:54:12Z</time>
      </trkpt>
      <trkpt lat="45.10342" lon="5.89232">
        <ele>1703</ele>
        <time>2022-06-22T17:54:23Z</time>
      </trkpt>
      <trkpt lat="45.10355" lon="5.89234">
        <ele>1705</ele>
        <time>2022-06-22T17:54:40Z</time>
      </trkpt>
      <trkpt lat="45.10388" lon="5.89248">
        <ele>1709</ele>
        <time>2022-06-22T17:55:26Z</time>
      </trkpt>
      <trkpt lat="45.10396" lon="5.89248">
        <ele>1710</ele>
        <time>2022-06-22T17:55:37Z</time>
      </trkpt>
      <trkpt lat="45.10412" lon="5.89243">
        <ele>1711</ele>
        <time>2022-06-22T17:55:59Z</time>
      </trkpt>
      <trkpt lat="45.10421" lon="5.89244">
        <ele>1712</ele>
        <time>2022-06-22T17:56:11Z</time>
      </trkpt>
      <trkpt lat="45.10433" lon="5.89249">
        <ele>1714</ele>
        <time>2022-06-22T17:56:28Z</time>
      </trkpt>
      <trkpt lat="45.10439" lon="5.89253">
        <ele>1715</ele>
        <time>2022-06-22T17:56:36Z</time>
      </trkpt>
      <trkpt lat="45.10482" lon="5.89305">
        <ele>1722</ele>
        <time>2022-06-22T17:57:52Z</time>
      </trkpt>
      <trkpt lat="45.10504" lon="5.89328">
        <ele>1723</ele>
        <time>2022-06-22T17:58:28Z</time>
      </trkpt>
      <trkpt lat="45.10511" lon="5.8933">
        <ele>1724</ele>
        <time>2022-06-22T17:58:38Z</time>
      </trkpt>
      <trkpt lat="45.10518" lon="5.89337">
        <ele>1726</ele>
        <time>2022-06-22T17:58:49Z</time>
      </trkpt>
      <trkpt lat="45.10529" lon="5.89358">
        <ele>1730</ele>
        <time>2022-06-22T17:59:14Z</time>
      </trkpt>
      <trkpt lat="45.10533" lon="5.89375">
        <ele>1733</ele>
        <time>2022-06-22T17:59:31Z</time>
      </trkpt>
      <trkpt lat="45.10537" lon="5.89377">
        <ele>1733</ele>
        <time>2022-06-22T17:59:36Z</time>
      </trkpt>
      <trkpt lat="45.10539" lon="5.89384">
        <ele>1735</ele>
        <time>2022-06-22T17:59:44Z</time>
      </trkpt>
      <trkpt lat="45.10543" lon="5.89389">
        <ele>1736</ele>
        <time>2022-06-22T17:59:51Z</time>
      </trkpt>
      <trkpt lat="45.10553" lon="5.89394">
        <ele>1737</ele>
        <time>2022-06-22T18:00:05Z</time>
      </trkpt>
      <trkpt lat="45.10557" lon="5.89419">
        <ele>1741</ele>
        <time>2022-06-22T18:00:29Z</time>
      </trkpt>
      <trkpt lat="45.10564" lon="5.89429">
        <ele>1743</ele>
        <time>2022-06-22T18:00:42Z</time>
      </trkpt>
      <trkpt lat="45.10572" lon="5.89447">
        <ele>1746</ele>
        <time>2022-06-22T18:01:02Z</time>
      </trkpt>
      <trkpt lat="45.10582" lon="5.89453">
        <ele>1747</ele>
        <time>2022-06-22T18:01:17Z</time>
      </trkpt>
      <trkpt lat="45.10589" lon="5.89464">
        <ele>1750</ele>
        <time>2022-06-22T18:01:31Z</time>
      </trkpt>
      <trkpt lat="45.10591" lon="5.89474">
        <ele>1752</ele>
        <time>2022-06-22T18:01:40Z</time>
      </trkpt>
      <trkpt lat="45.10598" lon="5.89479">
        <ele>1754</ele>
        <time>2022-06-22T18:01:51Z</time>
      </trkpt>
      <trkpt lat="45.10604" lon="5.8948">
        <ele>1755</ele>
        <time>2022-06-22T18:01:59Z</time>
      </trkpt>
      <trkpt lat="45.10605" lon="5.89486">
        <ele>1756</ele>
        <time>2022-06-22T18:02:05Z</time>
      </trkpt>
      <trkpt lat="45.10603" lon="5.89493">
        <ele>1757</ele>
        <time>2022-06-22T18:02:12Z</time>
      </trkpt>
      <trkpt lat="45.1061" lon="5.895">
        <ele>1759</ele>
        <time>2022-06-22T18:02:23Z</time>
      </trkpt>
      <trkpt lat="45.10623" lon="5.89502">
        <ele>1762</ele>
        <time>2022-06-22T18:02:41Z</time>
      </trkpt>
      <trkpt lat="45.10637" lon="5.89508">
        <ele>1766</ele>
        <time>2022-06-22T18:03:00Z</time>
      </trkpt>
      <trkpt lat="45.10646" lon="5.8952">
        <ele>1771</ele>
        <time>2022-06-22T18:03:17Z</time>
      </trkpt>
      <trkpt lat="45.10658" lon="5.89542">
        <ele>1779</ele>
        <time>2022-06-22T18:03:43Z</time>
      </trkpt>
      <trkpt lat="45.10675" lon="5.89555">
        <ele>1786</ele>
        <time>2022-06-22T18:04:09Z</time>
      </trkpt>
      <trkpt lat="45.10686" lon="5.89567">
        <ele>1791</ele>
        <time>2022-06-22T18:04:27Z</time>
      </trkpt>
      <trkpt lat="45.10695" lon="5.89575">
        <ele>1795</ele>
        <time>2022-06-22T18:04:42Z</time>
      </trkpt>
      <trkpt lat="45.1072" lon="5.89588">
        <ele>1803</ele>
        <time>2022-06-22T18:05:17Z</time>
      </trkpt>
      <trkpt lat="45.1073" lon="5.89594">
        <ele>1806</ele>
        <time>2022-06-22T18:05:32Z</time>
      </trkpt>
      <trkpt lat="45.10791" lon="5.89649">
        <ele>1828</ele>
        <time>2022-06-22T18:07:08Z</time>
      </trkpt>
      <trkpt lat="45.10812" lon="5.89651">
        <ele>1832</ele>
        <time>2022-06-22T18:07:36Z</time>
      </trkpt>
      <trkpt lat="45.10819" lon="5.89656">
        <ele>1834</ele>
        <time>2022-06-22T18:07:47Z</time>
      </trkpt>
      <trkpt lat="45.10826" lon="5.89665">
        <ele>1836</ele>
        <time>2022-06-22T18:07:59Z</time>
      </trkpt>
      <trkpt lat="45.10838" lon="5.89675">
        <ele>1840</ele>
        <time>2022-06-22T18:08:18Z</time>
      </trkpt>
      <trkpt lat="45.10844" lon="5.89685">
        <ele>1843</ele>
        <time>2022-06-22T18:08:30Z</time>
      </trkpt>
      <trkpt lat="45.10847" lon="5.89698">
        <ele>1846</ele>
        <time>2022-06-22T18:08:43Z</time>
      </trkpt>
      <trkpt lat="45.10854" lon="5.89715">
        <ele>1851</ele>
        <time>2022-06-22T18:09:02Z</time>
      </trkpt>
      <trkpt lat="45.10854" lon="5.8973">
        <ele>1853</ele>
        <time>2022-06-22T18:09:16Z</time>
      </trkpt>
      <trkpt lat="45.1085" lon="5.89745">
        <ele>1855</ele>
        <time>2022-06-22T18:09:31Z</time>
      </trkpt>
      <trkpt lat="45.1085" lon="5.89754">
        <ele>1857</ele>
        <time>2022-06-22T18:09:39Z</time>
      </trkpt>
      <trkpt lat="45.10855" lon="5.89774">
        <ele>1861</ele>
        <time>2022-06-22T18:09:59Z</time>
      </trkpt>
      <trkpt lat="45.10862" lon="5.89787">
        <ele>1863</ele>
        <time>2022-06-22T18:10:15Z</time>
      </trkpt>
      <trkpt lat="45.10894" lon="5.89833">
        <ele>1870</ele>
        <time>2022-06-22T18:11:15Z</time>
      </trkpt>
      <trkpt lat="45.10901" lon="5.89848">
        <ele>1871</ele>
        <time>2022-06-22T18:11:32Z</time>
      </trkpt>
      <trkpt lat="45.10902" lon="5.89866">
        <ele>1871</ele>
        <time>2022-06-22T18:11:49Z</time>
      </trkpt>
      <trkpt lat="45.10899" lon="5.89873">
        <ele>1871</ele>
        <time>2022-06-22T18:11:57Z</time>
      </trkpt>
      <trkpt lat="45.10902" lon="5.89887">
        <ele>1872</ele>
        <time>2022-06-22T18:12:11Z</time>
      </trkpt>
      <trkpt lat="45.10905" lon="5.8989">
        <ele>1872</ele>
        <time>2022-06-22T18:12:16Z</time>
      </trkpt>
      <trkpt lat="45.10909" lon="5.89889">
        <ele>1872</ele>
        <time>2022-06-22T18:12:21Z</time>
      </trkpt>
      <trkpt lat="45.10913" lon="5.89891">
        <ele>1871</ele>
        <time>2022-06-22T18:12:27Z</time>
      </trkpt>
      <trkpt lat="45.10916" lon="5.89895">
        <ele>1871</ele>
        <time>2022-06-22T18:12:32Z</time>
      </trkpt>
      <trkpt lat="45.10916" lon="5.899">
        <ele>1872</ele>
        <time>2022-06-22T18:12:37Z</time>
      </trkpt>
      <trkpt lat="45.10924" lon="5.89918">
        <ele>1873</ele>
        <time>2022-06-22T18:12:57Z</time>
      </trkpt>
      <trkpt lat="45.10924" lon="5.89925">
        <ele>1874</ele>
        <time>2022-06-22T18:13:04Z</time>
      </trkpt>
      <trkpt lat="45.10926" lon="5.89931">
        <ele>1874</ele>
        <time>2022-06-22T18:13:10Z</time>
      </trkpt>
      <trkpt lat="45.10929" lon="5.89934">
        <ele>1875</ele>
        <time>2022-06-22T18:13:15Z</time>
      </trkpt>
      <trkpt lat="45.10931" lon="5.89945">
        <ele>1876</ele>
        <time>2022-06-22T18:13:26Z</time>
      </trkpt>
      <trkpt lat="45.10936" lon="5.89956">
        <ele>1878</ele>
        <time>2022-06-22T18:13:38Z</time>
      </trkpt>
      <trkpt lat="45.1094" lon="5.89972">
        <ele>1880</ele>
        <time>2022-06-22T18:13:54Z</time>
      </trkpt>
      <trkpt lat="45.10949" lon="5.89983">
        <ele>1881</ele>
        <time>2022-06-22T18:14:10Z</time>
      </trkpt>
      <trkpt lat="45.10958" lon="5.89986">
        <ele>1881</ele>
        <time>2022-06-22T18:14:22Z</time>
      </trkpt>
      <trkpt lat="45.10961" lon="5.89984">
        <ele>1880</ele>
        <time>2022-06-22T18:14:26Z</time>
      </trkpt>
      <trkpt lat="45.10994" lon="5.90008">
        <ele>1880</ele>
        <time>2022-06-22T18:15:16Z</time>
      </trkpt>
      <trkpt lat="45.11009" lon="5.90042">
        <ele>1882</ele>
        <time>2022-06-22T18:15:54Z</time>
      </trkpt>
      <trkpt lat="45.11022" lon="5.90056">
        <ele>1885</ele>
        <time>2022-06-22T18:16:16Z</time>
      </trkpt>
      <trkpt lat="45.11029" lon="5.90058">
        <ele>1886</ele>
        <time>2022-06-22T18:16:25Z</time>
      </trkpt>
      <trkpt lat="45.11041" lon="5.90067">
        <ele>1889</ele>
        <time>2022-06-22T18:16:43Z</time>
      </trkpt>
      <trkpt lat="45.1105" lon="5.90068">
        <ele>1891</ele>
        <time>2022-06-22T18:16:55Z</time>
      </trkpt>
      <trkpt lat="45.11055" lon="5.90078">
        <ele>1892</ele>
        <time>2022-06-22T18:17:07Z</time>
      </trkpt>
      <trkpt lat="45.11057" lon="5.90105">
        <ele>1894</ele>
        <time>2022-06-22T18:17:32Z</time>
      </trkpt>
      <trkpt lat="45.1106" lon="5.9011">
        <ele>1895</ele>
        <time>2022-06-22T18:17:39Z</time>
      </trkpt>
      <trkpt lat="45.11067" lon="5.90112">
        <ele>1897</ele>
        <time>2022-06-22T18:17:48Z</time>
      </trkpt>
      <trkpt lat="45.11069" lon="5.90116">
        <ele>1897</ele>
        <time>2022-06-22T18:17:53Z</time>
      </trkpt>
      <trkpt lat="45.1107" lon="5.90118">
        <ele>1898</ele>
        <time>2022-06-22T18:17:55Z</time>
      </trkpt>
      <trkpt lat="45.11078" lon="5.90117">
        <ele>1900</ele>
        <time>2022-06-22T18:18:06Z</time>
      </trkpt>
      <trkpt lat="45.11083" lon="5.90113">
        <ele>1901</ele>
        <time>2022-06-22T18:18:13Z</time>
      </trkpt>
      <trkpt lat="45.11087" lon="5.90115">
        <ele>1902</ele>
        <time>2022-06-22T18:18:19Z</time>
      </trkpt>
      <trkpt lat="45.11092" lon="5.90121">
        <ele>1903</ele>
        <time>2022-06-22T18:18:28Z</time>
      </trkpt>
      <trkpt lat="45.11099" lon="5.90116">
        <ele>1905</ele>
        <time>2022-06-22T18:18:38Z</time>
      </trkpt>
      <trkpt lat="45.11101" lon="5.90118">
        <ele>1905</ele>
        <time>2022-06-22T18:18:41Z</time>
      </trkpt>
      <trkpt lat="45.11103" lon="5.90127">
        <ele>1906</ele>
        <time>2022-06-22T18:18:50Z</time>
      </trkpt>
      <trkpt lat="45.11108" lon="5.90132">
        <ele>1908</ele>
        <time>2022-06-22T18:18:59Z</time>
      </trkpt>
      <trkpt lat="45.11114" lon="5.90131">
        <ele>1909</ele>
        <time>2022-06-22T18:19:07Z</time>
      </trkpt>
      <trkpt lat="45.11131" lon="5.90142">
        <ele>1913</ele>
        <time>2022-06-22T18:19:32Z</time>
      </trkpt>
      <trkpt lat="45.11138" lon="5.9014">
        <ele>1914</ele>
        <time>2022-06-22T18:19:41Z</time>
      </trkpt>
      <trkpt lat="45.11151" lon="5.90143">
        <ele>1917</ele>
        <time>2022-06-22T18:19:59Z</time>
      </trkpt>
      <trkpt lat="45.11181" lon="5.90154">
        <ele>1920</ele>
        <time>2022-06-22T18:20:40Z</time>
      </trkpt>
      <trkpt lat="45.11203" lon="5.90178">
        <ele>1921</ele>
        <time>2022-06-22T18:21:17Z</time>
      </trkpt>
      <trkpt lat="45.11219" lon="5.90189">
        <ele>1921</ele>
        <time>2022-06-22T18:21:41Z</time>
      </trkpt>
      <trkpt lat="45.11224" lon="5.90188">
        <ele>1920</ele>
        <time>2022-06-22T18:21:48Z</time>
      </trkpt>
      <trkpt lat="45.11241" lon="5.90174">
        <ele>1918</ele>
        <time>2022-06-22T18:22:14Z</time>
      </trkpt>
      <trkpt lat="45.11254" lon="5.90166">
        <ele>1916</ele>
        <time>2022-06-22T18:22:33Z</time>
      </trkpt>
      <trkpt lat="45.11273" lon="5.90168">
        <ele>1916</ele>
        <time>2022-06-22T18:22:58Z</time>
      </trkpt>
      <trkpt lat="45.11287" lon="5.90166">
        <ele>1916</ele>
        <time>2022-06-22T18:23:17Z</time>
      </trkpt>
      <trkpt lat="45.1129" lon="5.90169">
        <ele>1916</ele>
        <time>2022-06-22T18:23:22Z</time>
      </trkpt>
      <trkpt lat="45.11296" lon="5.9018">
        <ele>1917</ele>
        <time>2022-06-22T18:23:35Z</time>
      </trkpt>
      <trkpt lat="45.11313" lon="5.90195">
        <ele>1919</ele>
        <time>2022-06-22T18:24:02Z</time>
      </trkpt>
      <trkpt lat="45.11322" lon="5.90208">
        <ele>1920</ele>
        <time>2022-06-22T18:24:19Z</time>
      </trkpt>
      <trkpt lat="45.11351" lon="5.90233">
        <ele>1924</ele>
        <time>2022-06-22T18:25:04Z</time>
      </trkpt>
      <trkpt lat="45.11364" lon="5.90229">
        <ele>1924</ele>
        <time>2022-06-22T18:25:22Z</time>
      </trkpt>
      <trkpt lat="45.11368" lon="5.90232">
        <ele>1925</ele>
        <time>2022-06-22T18:25:28Z</time>
      </trkpt>
      <trkpt lat="45.11385" lon="5.90227">
        <ele>1925</ele>
        <time>2022-06-22T18:25:51Z</time>
      </trkpt>
      <trkpt lat="45.11405" lon="5.90211">
        <ele>1924</ele>
        <time>2022-06-22T18:26:22Z</time>
      </trkpt>
      <trkpt lat="45.11417" lon="5.90211">
        <ele>1924</ele>
        <time>2022-06-22T18:26:38Z</time>
      </trkpt>
      <trkpt lat="45.11437" lon="5.90197">
        <ele>1922</ele>
        <time>2022-06-22T18:27:07Z</time>
      </trkpt>
      <trkpt lat="45.1144" lon="5.90198">
        <ele>1922</ele>
        <time>2022-06-22T18:27:12Z</time>
      </trkpt>
      <trkpt lat="45.11448" lon="5.90202">
        <ele>1922</ele>
        <time>2022-06-22T18:27:23Z</time>
      </trkpt>
      <trkpt lat="45.11462" lon="5.90215">
        <ele>1923</ele>
        <time>2022-06-22T18:27:45Z</time>
      </trkpt>
      <trkpt lat="45.11483" lon="5.90221">
        <ele>1922</ele>
        <time>2022-06-22T18:28:14Z</time>
      </trkpt>
      <trkpt lat="45.11502" lon="5.90222">
        <ele>1921</ele>
        <time>2022-06-22T18:28:39Z</time>
      </trkpt>
      <trkpt lat="45.11507" lon="5.90221">
        <ele>1922</ele>
        <time>2022-06-22T18:28:46Z</time>
      </trkpt>
      <trkpt lat="45.11517" lon="5.90213">
        <ele>1921</ele>
        <time>2022-06-22T18:29:01Z</time>
      </trkpt>
      <trkpt lat="45.11521" lon="5.90201">
        <ele>1920</ele>
        <time>2022-06-22T18:29:14Z</time>
      </trkpt>
      <trkpt lat="45.1152" lon="5.90194">
        <ele>1920</ele>
        <time>2022-06-22T18:29:20Z</time>
      </trkpt>
      <trkpt lat="45.1153" lon="5.90204">
        <ele>1921</ele>
        <time>2022-06-22T18:29:37Z</time>
      </trkpt>
      <trkpt lat="45.1154" lon="5.90208">
        <ele>1922</ele>
        <time>2022-06-22T18:29:51Z</time>
      </trkpt>
      <trkpt lat="45.11549" lon="5.90209">
        <ele>1922</ele>
        <time>2022-06-22T18:30:03Z</time>
      </trkpt>
      <trkpt lat="45.11561" lon="5.90216">
        <ele>1923</ele>
        <time>2022-06-22T18:30:20Z</time>
      </trkpt>
      <trkpt lat="45.11575" lon="5.90232">
        <ele>1925</ele>
        <time>2022-06-22T18:30:44Z</time>
      </trkpt>
      <trkpt lat="45.1158" lon="5.90253">
        <ele>1927</ele>
        <time>2022-06-22T18:31:05Z</time>
      </trkpt>
      <trkpt lat="45.116" lon="5.90267">
        <ele>1932</ele>
        <time>2022-06-22T18:31:35Z</time>
      </trkpt>
      <trkpt lat="45.11619" lon="5.90293">
        <ele>1938</ele>
        <time>2022-06-22T18:32:10Z</time>
      </trkpt>
      <trkpt lat="45.11623" lon="5.90297">
        <ele>1939</ele>
        <time>2022-06-22T18:32:16Z</time>
      </trkpt>
      <trkpt lat="45.11639" lon="5.90297">
        <ele>1940</ele>
        <time>2022-06-22T18:32:38Z</time>
      </trkpt>
      <trkpt lat="45.11647" lon="5.90311">
        <ele>1942</ele>
        <time>2022-06-22T18:32:55Z</time>
      </trkpt>
      <trkpt lat="45.11665" lon="5.90331">
        <ele>1945</ele>
        <time>2022-06-22T18:33:25Z</time>
      </trkpt>
      <trkpt lat="45.11675" lon="5.90335">
        <ele>1947</ele>
        <time>2022-06-22T18:33:39Z</time>
      </trkpt>
      <trkpt lat="45.11693" lon="5.90351">
        <ele>1954</ele>
        <time>2022-06-22T18:34:08Z</time>
      </trkpt>
      <trkpt lat="45.11697" lon="5.90349">
        <ele>1954</ele>
        <time>2022-06-22T18:34:13Z</time>
      </trkpt>
      <trkpt lat="45.11703" lon="5.9036">
        <ele>1958</ele>
        <time>2022-06-22T18:34:26Z</time>
      </trkpt>
      <trkpt lat="45.11705" lon="5.90373">
        <ele>1961</ele>
        <time>2022-06-22T18:34:39Z</time>
      </trkpt>
      <trkpt lat="45.11704" lon="5.90393">
        <ele>1965</ele>
        <time>2022-06-22T18:34:58Z</time>
      </trkpt>
      <trkpt lat="45.11711" lon="5.90403">
        <ele>1968</ele>
        <time>2022-06-22T18:35:11Z</time>
      </trkpt>
      <trkpt lat="45.11713" lon="5.90411">
        <ele>1970</ele>
        <time>2022-06-22T18:35:19Z</time>
      </trkpt>
      <trkpt lat="45.11716" lon="5.90413">
        <ele>1971</ele>
        <time>2022-06-22T18:35:23Z</time>
      </trkpt>
      <trkpt lat="45.11717" lon="5.90429">
        <ele>1976</ele>
        <time>2022-06-22T18:35:38Z</time>
      </trkpt>
      <trkpt lat="45.11745" lon="5.90453">
        <ele>1988</ele>
        <time>2022-06-22T18:36:22Z</time>
      </trkpt>
      <trkpt lat="45.11739" lon="5.90459">
        <ele>1989</ele>
        <time>2022-06-22T18:36:32Z</time>
      </trkpt>
      <trkpt lat="45.11726" lon="5.90465">
        <ele>1990</ele>
        <time>2022-06-22T18:36:50Z</time>
      </trkpt>
      <trkpt lat="45.11722" lon="5.90471">
        <ele>1992</ele>
        <time>2022-06-22T18:36:58Z</time>
      </trkpt>
      <trkpt lat="45.11716" lon="5.90477">
        <ele>1993</ele>
        <time>2022-06-22T18:37:08Z</time>
      </trkpt>
      <trkpt lat="45.11711" lon="5.90477">
        <ele>1992</ele>
        <time>2022-06-22T18:37:14Z</time>
      </trkpt>
      <trkpt lat="45.11698" lon="5.90481">
        <ele>1993</ele>
        <time>2022-06-22T18:37:32Z</time>
      </trkpt>
      <trkpt lat="45.11693" lon="5.90486">
        <ele>1994</ele>
        <time>2022-06-22T18:37:40Z</time>
      </trkpt>
      <trkpt lat="45.1169" lon="5.90487">
        <ele>1994</ele>
        <time>2022-06-22T18:37:44Z</time>
      </trkpt>
      <trkpt lat="45.11689" lon="5.90492">
        <ele>1996</ele>
        <time>2022-06-22T18:37:49Z</time>
      </trkpt>
      <trkpt lat="45.11712" lon="5.90514">
        <ele>2007</ele>
        <time>2022-06-22T18:38:26Z</time>
      </trkpt>
      <trkpt lat="45.11748" lon="5.90553">
        <ele>2022</ele>
        <time>2022-06-22T18:39:27Z</time>
      </trkpt>
      <trkpt lat="45.11771" lon="5.90567">
        <ele>2031</ele>
        <time>2022-06-22T18:40:00Z</time>
      </trkpt>
      <trkpt lat="45.1179" lon="5.90589">
        <ele>2037</ele>
        <time>2022-06-22T18:40:33Z</time>
      </trkpt>
      <trkpt lat="45.11801" lon="5.90612">
        <ele>2033</ele>
        <time>2022-06-22T18:40:59Z</time>
      </trkpt>
      <trkpt lat="45.11816" lon="5.90629">
        <ele>2031</ele>
        <time>2022-06-22T18:41:25Z</time>
      </trkpt>
      <trkpt lat="45.11822" lon="5.90641">
        <ele>2028</ele>
        <time>2022-06-22T18:41:39Z</time>
      </trkpt>
      <trkpt lat="45.11838" lon="5.90648">
        <ele>2029</ele>
        <time>2022-06-22T18:42:01Z</time>
      </trkpt>
      <trkpt lat="45.11854" lon="5.90656">
        <ele>2031</ele>
        <time>2022-06-22T18:42:24Z</time>
      </trkpt>
      <trkpt lat="45.11865" lon="5.90666">
        <ele>2032</ele>
        <time>2022-06-22T18:42:41Z</time>
      </trkpt>
      <trkpt lat="45.11867" lon="5.90669">
        <ele>2031</ele>
        <time>2022-06-22T18:42:45Z</time>
      </trkpt>
      <trkpt lat="45.11866" lon="5.90687">
        <ele>2027</ele>
        <time>2022-06-22T18:43:02Z</time>
      </trkpt>
      <trkpt lat="45.11879" lon="5.90703">
        <ele>2028</ele>
        <time>2022-06-22T18:43:25Z</time>
      </trkpt>
      <trkpt lat="45.1189" lon="5.90709">
        <ele>2030</ele>
        <time>2022-06-22T18:43:41Z</time>
      </trkpt>
      <trkpt lat="45.11893" lon="5.90715">
        <ele>2030</ele>
        <time>2022-06-22T18:43:48Z</time>
      </trkpt>
      <trkpt lat="45.11905" lon="5.90721">
        <ele>2034</ele>
        <time>2022-06-22T18:44:05Z</time>
      </trkpt>
      <trkpt lat="45.11922" lon="5.90738">
        <ele>2038</ele>
        <time>2022-06-22T18:44:32Z</time>
      </trkpt>
      <trkpt lat="45.11922" lon="5.90744">
        <ele>2037</ele>
        <time>2022-06-22T18:44:38Z</time>
      </trkpt>
      <trkpt lat="45.11928" lon="5.90746">
        <ele>2039</ele>
        <time>2022-06-22T18:44:46Z</time>
      </trkpt>
      <trkpt lat="45.1193" lon="5.90752">
        <ele>2039</ele>
        <time>2022-06-22T18:44:52Z</time>
      </trkpt>
      <trkpt lat="45.11938" lon="5.90756">
        <ele>2042</ele>
        <time>2022-06-22T18:45:04Z</time>
      </trkpt>
      <trkpt lat="45.1194" lon="5.90759">
        <ele>2042</ele>
        <time>2022-06-22T18:45:08Z</time>
      </trkpt>
      <trkpt lat="45.11947" lon="5.90762">
        <ele>2044</ele>
        <time>2022-06-22T18:45:17Z</time>
      </trkpt>
      <trkpt lat="45.11962" lon="5.9079">
        <ele>2046</ele>
        <time>2022-06-22T18:45:51Z</time>
      </trkpt>
      <trkpt lat="45.11966" lon="5.90816">
        <ele>2045</ele>
        <time>2022-06-22T18:46:16Z</time>
      </trkpt>
      <trkpt lat="45.11967" lon="5.9082">
        <ele>2044</ele>
        <time>2022-06-22T18:46:20Z</time>
      </trkpt>
      <trkpt lat="45.11976" lon="5.90833">
        <ele>2047</ele>
        <time>2022-06-22T18:46:37Z</time>
      </trkpt>
      <trkpt lat="45.11983" lon="5.90839">
        <ele>2050</ele>
        <time>2022-06-22T18:46:48Z</time>
      </trkpt>
      <trkpt lat="45.11989" lon="5.90848">
        <ele>2052</ele>
        <time>2022-06-22T18:46:59Z</time>
      </trkpt>
      <trkpt lat="45.11992" lon="5.90849">
        <ele>2053</ele>
        <time>2022-06-22T18:47:03Z</time>
      </trkpt>
      <trkpt lat="45.11995" lon="5.90844">
        <ele>2056</ele>
        <time>2022-06-22T18:47:10Z</time>
      </trkpt>
      <trkpt lat="45.11997" lon="5.90845">
        <ele>2056</ele>
        <time>2022-06-22T18:47:12Z</time>
      </trkpt>
      <trkpt lat="45.12009" lon="5.90842">
        <ele>2060</ele>
        <time>2022-06-22T18:47:29Z</time>
      </trkpt>
      <trkpt lat="45.12019" lon="5.90836">
        <ele>2063</ele>
        <time>2022-06-22T18:47:43Z</time>
      </trkpt>
      <trkpt lat="45.12029" lon="5.90855">
        <ele>2062</ele>
        <time>2022-06-22T18:48:06Z</time>
      </trkpt>
      <trkpt lat="45.12059" lon="5.90861">
        <ele>2067</ele>
        <time>2022-06-22T18:48:46Z</time>
      </trkpt>
      <trkpt lat="45.12069" lon="5.9087">
        <ele>2067</ele>
        <time>2022-06-22T18:49:02Z</time>
      </trkpt>
      <trkpt lat="45.12077" lon="5.90873">
        <ele>2068</ele>
        <time>2022-06-22T18:49:13Z</time>
      </trkpt>
      <trkpt lat="45.12082" lon="5.90883">
        <ele>2067</ele>
        <time>2022-06-22T18:49:24Z</time>
      </trkpt>
      <trkpt lat="45.12086" lon="5.90896">
        <ele>2065</ele>
        <time>2022-06-22T18:49:38Z</time>
      </trkpt>
      <trkpt lat="45.12095" lon="5.9091">
        <ele>2063</ele>
        <time>2022-06-22T18:49:56Z</time>
      </trkpt>
      <trkpt lat="45.12104" lon="5.90918">
        <ele>2062</ele>
        <time>2022-06-22T18:50:10Z</time>
      </trkpt>
      <trkpt lat="45.1212" lon="5.90942">
        <ele>2062</ele>
        <time>2022-06-22T18:50:41Z</time>
      </trkpt>
      <trkpt lat="45.1213" lon="5.90938">
        <ele>2063</ele>
        <time>2022-06-22T18:50:55Z</time>
      </trkpt>
      <trkpt lat="45.12137" lon="5.90941">
        <ele>2063</ele>
        <time>2022-06-22T18:51:04Z</time>
      </trkpt>
      <trkpt lat="45.12142" lon="5.90955">
        <ele>2063</ele>
        <time>2022-06-22T18:51:19Z</time>
      </trkpt>
      <trkpt lat="45.12153" lon="5.90959">
        <ele>2064</ele>
        <time>2022-06-22T18:51:34Z</time>
      </trkpt>
      <trkpt lat="45.12161" lon="5.90968">
        <ele>2065</ele>
        <time>2022-06-22T18:51:48Z</time>
      </trkpt>
      <trkpt lat="45.12197" lon="5.90976">
        <ele>2067</ele>
        <time>2022-06-22T18:52:37Z</time>
      </trkpt>
      <trkpt lat="45.12204" lon="5.90975">
        <ele>2067</ele>
        <time>2022-06-22T18:52:46Z</time>
      </trkpt>
      <trkpt lat="45.12211" lon="5.9098">
        <ele>2067</ele>
        <time>2022-06-22T18:52:56Z</time>
      </trkpt>
      <trkpt lat="45.12215" lon="5.9099">
        <ele>2067</ele>
        <time>2022-06-22T18:53:07Z</time>
      </trkpt>
      <trkpt lat="45.12222" lon="5.90995">
        <ele>2068</ele>
        <time>2022-06-22T18:53:18Z</time>
      </trkpt>
      <trkpt lat="45.12243" lon="5.91001">
        <ele>2069</ele>
        <time>2022-06-22T18:53:46Z</time>
      </trkpt>
      <trkpt lat="45.12254" lon="5.91">
        <ele>2069</ele>
        <time>2022-06-22T18:54:01Z</time>
      </trkpt>
      <trkpt lat="45.12266" lon="5.91005">
        <ele>2071</ele>
        <time>2022-06-22T18:54:18Z</time>
      </trkpt>
      <trkpt lat="45.12288" lon="5.91031">
        <ele>2078</ele>
        <time>2022-06-22T18:54:56Z</time>
      </trkpt>
      <trkpt lat="45.123" lon="5.91038">
        <ele>2081</ele>
        <time>2022-06-22T18:55:13Z</time>
      </trkpt>
      <trkpt lat="45.12308" lon="5.91046">
        <ele>2084</ele>
        <time>2022-06-22T18:55:26Z</time>
      </trkpt>
      <trkpt lat="45.12322" lon="5.91047">
        <ele>2087</ele>
        <time>2022-06-22T18:55:45Z</time>
      </trkpt>
      <trkpt lat="45.12345" lon="5.91047">
        <ele>2092</ele>
        <time>2022-06-22T18:56:16Z</time>
      </trkpt>
      <trkpt lat="45.12357" lon="5.91042">
        <ele>2094</ele>
        <time>2022-06-22T18:56:32Z</time>
      </trkpt>
      <trkpt lat="45.1238" lon="5.91026">
        <ele>2096</ele>
        <time>2022-06-22T18:57:07Z</time>
      </trkpt>
      <trkpt lat="45.12393" lon="5.91004">
        <ele>2095</ele>
        <time>2022-06-22T18:57:34Z</time>
      </trkpt>
      <trkpt lat="45.12398" lon="5.90992">
        <ele>2096</ele>
        <time>2022-06-22T18:57:47Z</time>
      </trkpt>
      <trkpt lat="45.12408" lon="5.90976">
        <ele>2099</ele>
        <time>2022-06-22T18:58:07Z</time>
      </trkpt>
      <trkpt lat="45.1241" lon="5.90941">
        <ele>2101</ele>
        <time>2022-06-22T18:58:40Z</time>
      </trkpt>
      <trkpt lat="45.12418" lon="5.9092">
        <ele>2105</ele>
        <time>2022-06-22T18:59:02Z</time>
      </trkpt>
      <trkpt lat="45.12426" lon="5.90907">
        <ele>2110</ele>
        <time>2022-06-22T18:59:19Z</time>
      </trkpt>
      <trkpt lat="45.12442" lon="5.90894">
        <ele>2120</ele>
        <time>2022-06-22T18:59:43Z</time>
      </trkpt>
      <trkpt lat="45.12446" lon="5.90891">
        <ele>2123</ele>
        <time>2022-06-22T18:59:49Z</time>
      </trkpt>
      <trkpt lat="45.1245" lon="5.90893">
        <ele>2124</ele>
        <time>2022-06-22T18:59:55Z</time>
      </trkpt>
      <trkpt lat="45.12453" lon="5.90904">
        <ele>2124</ele>
        <time>2022-06-22T19:00:06Z</time>
      </trkpt>
      <trkpt lat="45.1245" lon="5.90916">
        <ele>2120</ele>
        <time>2022-06-22T19:00:18Z</time>
      </trkpt>
      <trkpt lat="45.12453" lon="5.90932">
        <ele>2121</ele>
        <time>2022-06-22T19:00:34Z</time>
      </trkpt>
      <trkpt lat="45.12459" lon="5.90935">
        <ele>2124</ele>
        <time>2022-06-22T19:00:42Z</time>
      </trkpt>
      <trkpt lat="45.12461" lon="5.90943">
        <ele>2125</ele>
        <time>2022-06-22T19:00:50Z</time>
      </trkpt>
      <trkpt lat="45.12466" lon="5.90948">
        <ele>2127</ele>
        <time>2022-06-22T19:00:58Z</time>
      </trkpt>
      <trkpt lat="45.12477" lon="5.90918">
        <ele>2133</ele>
        <time>2022-06-22T19:01:30Z</time>
      </trkpt>
      <trkpt lat="45.12481" lon="5.90917">
        <ele>2135</ele>
        <time>2022-06-22T19:01:36Z</time>
      </trkpt>
      <trkpt lat="45.12485" lon="5.90921">
        <ele>2137</ele>
        <time>2022-06-22T19:01:42Z</time>
      </trkpt>
      <trkpt lat="45.12489" lon="5.90939">
        <ele>2139</ele>
        <time>2022-06-22T19:02:00Z</time>
      </trkpt>
      <trkpt lat="45.12493" lon="5.90948">
        <ele>2141</ele>
        <time>2022-06-22T19:02:10Z</time>
      </trkpt>
      <trkpt lat="45.12503" lon="5.90964">
        <ele>2145</ele>
        <time>2022-06-22T19:02:30Z</time>
      </trkpt>
      <trkpt lat="45.12512" lon="5.90981">
        <ele>2148</ele>
        <time>2022-06-22T19:02:50Z</time>
      </trkpt>
      <trkpt lat="45.12522" lon="5.91025">
        <ele>2155</ele>
        <time>2022-06-22T19:03:34Z</time>
      </trkpt>
      <trkpt lat="45.1252" lon="5.91043">
        <ele>2157</ele>
        <time>2022-06-22T19:03:51Z</time>
      </trkpt>
      <trkpt lat="45.12515" lon="5.91062">
        <ele>2158</ele>
        <time>2022-06-22T19:04:10Z</time>
      </trkpt>
      <trkpt lat="45.12514" lon="5.91083">
        <ele>2161</ele>
        <time>2022-06-22T19:04:30Z</time>
      </trkpt>
      <trkpt lat="45.12507" lon="5.91116">
        <ele>2162</ele>
        <time>2022-06-22T19:05:02Z</time>
      </trkpt>
      <trkpt lat="45.12507" lon="5.91154">
        <ele>2167</ele>
        <time>2022-06-22T19:05:38Z</time>
      </trkpt>
      <trkpt lat="45.12498" lon="5.91184">
        <ele>2162</ele>
        <time>2022-06-22T19:06:08Z</time>
      </trkpt>
      <trkpt lat="45.12505" lon="5.91201">
        <ele>2161</ele>
        <time>2022-06-22T19:06:27Z</time>
      </trkpt>
      <trkpt lat="45.12554" lon="5.91259">
        <ele>2163</ele>
        <time>2022-06-22T19:07:52Z</time>
      </trkpt>
      <trkpt lat="45.12582" lon="5.91307">
        <ele>2153</ele>
        <time>2022-06-22T19:08:51Z</time>
      </trkpt>
      <trkpt lat="45.12592" lon="5.91325">
        <ele>2149</ele>
        <time>2022-06-22T19:09:12Z</time>
      </trkpt>
      <trkpt lat="45.1261" lon="5.91385">
        <ele>2136</ele>
        <time>2022-06-22T19:10:14Z</time>
      </trkpt>
      <trkpt lat="45.12632" lon="5.91404">
        <ele>2139</ele>
        <time>2022-06-22T19:10:48Z</time>
      </trkpt>
      <trkpt lat="45.12638" lon="5.91418">
        <ele>2137</ele>
        <time>2022-06-22T19:11:04Z</time>
      </trkpt>
      <trkpt lat="45.12643" lon="5.91424">
        <ele>2138</ele>
        <time>2022-06-22T19:11:12Z</time>
      </trkpt>
      <trkpt lat="45.12651" lon="5.91443">
        <ele>2136</ele>
        <time>2022-06-22T19:11:33Z</time>
      </trkpt>
      <trkpt lat="45.12653" lon="5.91454">
        <ele>2134</ele>
        <time>2022-06-22T19:11:44Z</time>
      </trkpt>
      <trkpt lat="45.12666" lon="5.91487">
        <ele>2131</ele>
        <time>2022-06-22T19:12:19Z</time>
      </trkpt>
      <trkpt lat="45.12671" lon="5.91528">
        <ele>2126</ele>
        <time>2022-06-22T19:12:59Z</time>
      </trkpt>
      <trkpt lat="45.12678" lon="5.91543">
        <ele>2127</ele>
        <time>2022-06-22T19:13:16Z</time>
      </trkpt>
      <trkpt lat="45.12679" lon="5.91553">
        <ele>2126</ele>
        <time>2022-06-22T19:13:25Z</time>
      </trkpt>
      <trkpt lat="45.12681" lon="5.91578">
        <ele>2124</ele>
        <time>2022-06-22T19:13:49Z</time>
      </trkpt>
      <trkpt lat="45.12685" lon="5.91589">
        <ele>2124</ele>
        <time>2022-06-22T19:14:00Z</time>
      </trkpt>
      <trkpt lat="45.12688" lon="5.91604">
        <ele>2123</ele>
        <time>2022-06-22T19:14:15Z</time>
      </trkpt>
      <trkpt lat="45.12692" lon="5.91614">
        <ele>2124</ele>
        <time>2022-06-22T19:14:26Z</time>
      </trkpt>
      <trkpt lat="45.12696" lon="5.9162">
        <ele>2125</ele>
        <time>2022-06-22T19:14:34Z</time>
      </trkpt>
      <trkpt lat="45.12706" lon="5.91656">
        <ele>2124</ele>
        <time>2022-06-22T19:15:10Z</time>
      </trkpt>
      <trkpt lat="45.12715" lon="5.91671">
        <ele>2126</ele>
        <time>2022-06-22T19:15:29Z</time>
      </trkpt>
      <trkpt lat="45.12719" lon="5.91694">
        <ele>2122</ele>
        <time>2022-06-22T19:15:51Z</time>
      </trkpt>
      <trkpt lat="45.12726" lon="5.91719">
        <ele>2119</ele>
        <time>2022-06-22T19:16:16Z</time>
      </trkpt>
      <trkpt lat="45.12728" lon="5.91739">
        <ele>2114</ele>
        <time>2022-06-22T19:16:35Z</time>
      </trkpt>
      <trkpt lat="45.12731" lon="5.9174">
        <ele>2115</ele>
        <time>2022-06-22T19:16:39Z</time>
      </trkpt>
      <trkpt lat="45.12737" lon="5.91752">
        <ele>2115</ele>
        <time>2022-06-22T19:16:53Z</time>
      </trkpt>
      <trkpt lat="45.12747" lon="5.91759">
        <ele>2118</ele>
        <time>2022-06-22T19:17:08Z</time>
      </trkpt>
      <trkpt lat="45.12763" lon="5.91796">
        <ele>2110</ele>
        <time>2022-06-22T19:17:49Z</time>
      </trkpt>
      <trkpt lat="45.12766" lon="5.91808">
        <ele>2108</ele>
        <time>2022-06-22T19:18:01Z</time>
      </trkpt>
      <trkpt lat="45.12773" lon="5.91817">
        <ele>2106</ele>
        <time>2022-06-22T19:18:14Z</time>
      </trkpt>
      <trkpt lat="45.12781" lon="5.91824">
        <ele>2105</ele>
        <time>2022-06-22T19:18:26Z</time>
      </trkpt>
      <trkpt lat="45.12787" lon="5.91838">
        <ele>2104</ele>
        <time>2022-06-22T19:18:42Z</time>
      </trkpt>
      <trkpt lat="45.12786" lon="5.91843">
        <ele>2103</ele>
        <time>2022-06-22T19:18:46Z</time>
      </trkpt>
      <trkpt lat="45.12789" lon="5.91849">
        <ele>2102</ele>
        <time>2022-06-22T19:18:53Z</time>
      </trkpt>
      <trkpt lat="45.12796" lon="5.91857">
        <ele>2102</ele>
        <time>2022-06-22T19:19:05Z</time>
      </trkpt>
      <trkpt lat="45.12806" lon="5.91878">
        <ele>2101</ele>
        <time>2022-06-22T19:19:29Z</time>
      </trkpt>
      <trkpt lat="45.12813" lon="5.91885">
        <ele>2101</ele>
        <time>2022-06-22T19:19:41Z</time>
      </trkpt>
      <trkpt lat="45.12825" lon="5.91909">
        <ele>2101</ele>
        <time>2022-06-22T19:20:08Z</time>
      </trkpt>
      <trkpt lat="45.1283" lon="5.91923">
        <ele>2102</ele>
        <time>2022-06-22T19:20:23Z</time>
      </trkpt>
      <trkpt lat="45.12848" lon="5.91952">
        <ele>2099</ele>
        <time>2022-06-22T19:21:00Z</time>
      </trkpt>
      <trkpt lat="45.12857" lon="5.91965">
        <ele>2098</ele>
        <time>2022-06-22T19:21:17Z</time>
      </trkpt>
      <trkpt lat="45.12872" lon="5.91959">
        <ele>2093</ele>
        <time>2022-06-22T19:21:37Z</time>
      </trkpt>
      <trkpt lat="45.12878" lon="5.91954">
        <ele>2090</ele>
        <time>2022-06-22T19:21:47Z</time>
      </trkpt>
      <trkpt lat="45.1288" lon="5.91938">
        <ele>2086</ele>
        <time>2022-06-22T19:22:02Z</time>
      </trkpt>
      <trkpt lat="45.12887" lon="5.91928">
        <ele>2081</ele>
        <time>2022-06-22T19:22:15Z</time>
      </trkpt>
      <trkpt lat="45.12893" lon="5.91942">
        <ele>2082</ele>
        <time>2022-06-22T19:22:31Z</time>
      </trkpt>
      <trkpt lat="45.12901" lon="5.91942">
        <ele>2080</ele>
        <time>2022-06-22T19:22:41Z</time>
      </trkpt>
      <trkpt lat="45.12901" lon="5.91937">
        <ele>2078</ele>
        <time>2022-06-22T19:22:46Z</time>
      </trkpt>
      <trkpt lat="45.12907" lon="5.91928">
        <ele>2073</ele>
        <time>2022-06-22T19:22:58Z</time>
      </trkpt>
      <trkpt lat="45.12911" lon="5.91904">
        <ele>2064</ele>
        <time>2022-06-22T19:23:21Z</time>
      </trkpt>
      <trkpt lat="45.12917" lon="5.91889">
        <ele>2058</ele>
        <time>2022-06-22T19:23:37Z</time>
      </trkpt>
      <trkpt lat="45.12919" lon="5.91876">
        <ele>2055</ele>
        <time>2022-06-22T19:23:50Z</time>
      </trkpt>
      <trkpt lat="45.12918" lon="5.91869">
        <ele>2054</ele>
        <time>2022-06-22T19:23:56Z</time>
      </trkpt>
      <trkpt lat="45.12922" lon="5.91861">
        <ele>2050</ele>
        <time>2022-06-22T19:24:06Z</time>
      </trkpt>
      <trkpt lat="45.12922" lon="5.91855">
        <ele>2049</ele>
        <time>2022-06-22T19:24:11Z</time>
      </trkpt>
      <trkpt lat="45.12924" lon="5.91848">
        <ele>2047</ele>
        <time>2022-06-22T19:24:18Z</time>
      </trkpt>
      <trkpt lat="45.12923" lon="5.9184">
        <ele>2045</ele>
        <time>2022-06-22T19:24:26Z</time>
      </trkpt>
      <trkpt lat="45.12925" lon="5.91835">
        <ele>2044</ele>
        <time>2022-06-22T19:24:32Z</time>
      </trkpt>
      <trkpt lat="45.12925" lon="5.91816">
        <ele>2043</ele>
        <time>2022-06-22T19:24:49Z</time>
      </trkpt>
      <trkpt lat="45.12927" lon="5.91809">
        <ele>2043</ele>
        <time>2022-06-22T19:24:57Z</time>
      </trkpt>
      <trkpt lat="45.12937" lon="5.91796">
        <ele>2038</ele>
        <time>2022-06-22T19:25:15Z</time>
      </trkpt>
      <trkpt lat="45.12942" lon="5.91783">
        <ele>2036</ele>
        <time>2022-06-22T19:25:29Z</time>
      </trkpt>
      <trkpt lat="45.1295" lon="5.91772">
        <ele>2033</ele>
        <time>2022-06-22T19:25:43Z</time>
      </trkpt>
      <trkpt lat="45.12956" lon="5.91757">
        <ele>2030</ele>
        <time>2022-06-22T19:26:00Z</time>
      </trkpt>
      <trkpt lat="45.12971" lon="5.91737">
        <ele>2024</ele>
        <time>2022-06-22T19:26:27Z</time>
      </trkpt>
      <trkpt lat="45.1298" lon="5.91722">
        <ele>2021</ele>
        <time>2022-06-22T19:26:46Z</time>
      </trkpt>
      <trkpt lat="45.1299" lon="5.91711">
        <ele>2017</ele>
        <time>2022-06-22T19:27:03Z</time>
      </trkpt>
      <trkpt lat="45.12997" lon="5.91706">
        <ele>2014</ele>
        <time>2022-06-22T19:27:13Z</time>
      </trkpt>
      <trkpt lat="45.13006" lon="5.91689">
        <ele>2012</ele>
        <time>2022-06-22T19:27:33Z</time>
      </trkpt>
      <trkpt lat="45.13029" lon="5.91664">
        <ele>2008</ele>
        <time>2022-06-22T19:28:12Z</time>
      </trkpt>
      <trkpt lat="45.1303" lon="5.91663">
        <ele>2008</ele>
        <time>2022-06-22T19:28:13Z</time>
      </trkpt>
      <trkpt lat="45.13017" lon="5.91633">
        <ele>2011</ele>
        <time>2022-06-22T19:28:47Z</time>
      </trkpt>
      <trkpt lat="45.1303" lon="5.91663">
        <ele>2008</ele>
        <time>2022-06-22T19:29:20Z</time>
      </trkpt>
      <trkpt lat="45.13033" lon="5.91661">
        <ele>2008</ele>
        <time>2022-06-22T19:29:24Z</time>
      </trkpt>
      <trkpt lat="45.13054" lon="5.91663">
        <ele>2004</ele>
        <time>2022-06-22T19:29:52Z</time>
      </trkpt>
      <trkpt lat="45.13061" lon="5.91669">
        <ele>2002</ele>
        <time>2022-06-22T19:30:03Z</time>
      </trkpt>
      <trkpt lat="45.13065" lon="5.91683">
        <ele>2001</ele>
        <time>2022-06-22T19:30:17Z</time>
      </trkpt>
      <trkpt lat="45.13079" lon="5.91704">
        <ele>1999</ele>
        <time>2022-06-22T19:30:45Z</time>
      </trkpt>
      <trkpt lat="45.13083" lon="5.91706">
        <ele>1998</ele>
        <time>2022-06-22T19:30:50Z</time>
      </trkpt>
      <trkpt lat="45.13084" lon="5.91701">
        <ele>1998</ele>
        <time>2022-06-22T19:30:55Z</time>
      </trkpt>
      <trkpt lat="45.1308" lon="5.91683">
        <ele>1999</ele>
        <time>2022-06-22T19:31:13Z</time>
      </trkpt>
      <trkpt lat="45.13071" lon="5.9167">
        <ele>2000</ele>
        <time>2022-06-22T19:31:30Z</time>
      </trkpt>
      <trkpt lat="45.13063" lon="5.91615">
        <ele>2001</ele>
        <time>2022-06-22T19:32:23Z</time>
      </trkpt>
      <trkpt lat="45.1306" lon="5.91593">
        <ele>2002</ele>
        <time>2022-06-22T19:32:44Z</time>
      </trkpt>
      <trkpt lat="45.13055" lon="5.91578">
        <ele>2003</ele>
        <time>2022-06-22T19:33:00Z</time>
      </trkpt>
      <trkpt lat="45.13056" lon="5.91567">
        <ele>2002</ele>
        <time>2022-06-22T19:33:10Z</time>
      </trkpt>
      <trkpt lat="45.13054" lon="5.9156">
        <ele>2003</ele>
        <time>2022-06-22T19:33:17Z</time>
      </trkpt>
      <trkpt lat="45.13052" lon="5.91558">
        <ele>2003</ele>
        <time>2022-06-22T19:33:20Z</time>
      </trkpt>
      <trkpt lat="45.13049" lon="5.9155">
        <ele>2004</ele>
        <time>2022-06-22T19:33:29Z</time>
      </trkpt>
      <trkpt lat="45.13046" lon="5.91546">
        <ele>2005</ele>
        <time>2022-06-22T19:33:34Z</time>
      </trkpt>
      <trkpt lat="45.13046" lon="5.91541">
        <ele>2005</ele>
        <time>2022-06-22T19:33:39Z</time>
      </trkpt>
      <trkpt lat="45.13039" lon="5.91522">
        <ele>2007</ele>
        <time>2022-06-22T19:33:59Z</time>
      </trkpt>
      <trkpt lat="45.13039" lon="5.91481">
        <ele>2006</ele>
        <time>2022-06-22T19:34:38Z</time>
      </trkpt>
      <trkpt lat="45.13035" lon="5.91471">
        <ele>2007</ele>
        <time>2022-06-22T19:34:49Z</time>
      </trkpt>
      <trkpt lat="45.13034" lon="5.91463">
        <ele>2008</ele>
        <time>2022-06-22T19:34:56Z</time>
      </trkpt>
      <trkpt lat="45.13034" lon="5.91443">
        <ele>2007</ele>
        <time>2022-06-22T19:35:15Z</time>
      </trkpt>
      <trkpt lat="45.13037" lon="5.91431">
        <ele>2005</ele>
        <time>2022-06-22T19:35:27Z</time>
      </trkpt>
      <trkpt lat="45.13034" lon="5.91414">
        <ele>2006</ele>
        <time>2022-06-22T19:35:44Z</time>
      </trkpt>
      <trkpt lat="45.13035" lon="5.91407">
        <ele>2006</ele>
        <time>2022-06-22T19:35:50Z</time>
      </trkpt>
      <trkpt lat="45.13038" lon="5.91383">
        <ele>2005</ele>
        <time>2022-06-22T19:36:13Z</time>
      </trkpt>
      <trkpt lat="45.13036" lon="5.91335">
        <ele>2006</ele>
        <time>2022-06-22T19:36:59Z</time>
      </trkpt>
      <trkpt lat="45.13042" lon="5.91313">
        <ele>2006</ele>
        <time>2022-06-22T19:37:21Z</time>
      </trkpt>
      <trkpt lat="45.13046" lon="5.91288">
        <ele>2007</ele>
        <time>2022-06-22T19:37:45Z</time>
      </trkpt>
      <trkpt lat="45.1306" lon="5.91241">
        <ele>2007</ele>
        <time>2022-06-22T19:38:33Z</time>
      </trkpt>
      <trkpt lat="45.13077" lon="5.91224">
        <ele>2005</ele>
        <time>2022-06-22T19:39:01Z</time>
      </trkpt>
      <trkpt lat="45.13093" lon="5.91203">
        <ele>2008</ele>
        <time>2022-06-22T19:39:30Z</time>
      </trkpt>
      <trkpt lat="45.13102" lon="5.91199">
        <ele>2008</ele>
        <time>2022-06-22T19:39:42Z</time>
      </trkpt>
      <trkpt lat="45.13107" lon="5.91197">
        <ele>2008</ele>
        <time>2022-06-22T19:39:49Z</time>
      </trkpt>
      <trkpt lat="45.13124" lon="5.91202">
        <ele>2005</ele>
        <time>2022-06-22T19:40:13Z</time>
      </trkpt>
      <trkpt lat="45.13135" lon="5.91198">
        <ele>2005</ele>
        <time>2022-06-22T19:40:28Z</time>
      </trkpt>
      <trkpt lat="45.13146" lon="5.91182">
        <ele>2007</ele>
        <time>2022-06-22T19:40:49Z</time>
      </trkpt>
      <trkpt lat="45.13148" lon="5.91176">
        <ele>2008</ele>
        <time>2022-06-22T19:40:55Z</time>
      </trkpt>
      <trkpt lat="45.13147" lon="5.9117">
        <ele>2009</ele>
        <time>2022-06-22T19:41:01Z</time>
      </trkpt>
      <trkpt lat="45.13149" lon="5.91166">
        <ele>2009</ele>
        <time>2022-06-22T19:41:05Z</time>
      </trkpt>
      <trkpt lat="45.13154" lon="5.91166">
        <ele>2009</ele>
        <time>2022-06-22T19:41:12Z</time>
      </trkpt>
      <trkpt lat="45.13157" lon="5.91162">
        <ele>2009</ele>
        <time>2022-06-22T19:41:18Z</time>
      </trkpt>
      <trkpt lat="45.1316" lon="5.91151">
        <ele>2011</ele>
        <time>2022-06-22T19:41:29Z</time>
      </trkpt>
      <trkpt lat="45.13163" lon="5.91149">
        <ele>2011</ele>
        <time>2022-06-22T19:41:33Z</time>
      </trkpt>
      <trkpt lat="45.13171" lon="5.91134">
        <ele>2013</ele>
        <time>2022-06-22T19:41:51Z</time>
      </trkpt>
      <trkpt lat="45.13171" lon="5.91129">
        <ele>2014</ele>
        <time>2022-06-22T19:41:55Z</time>
      </trkpt>
      <trkpt lat="45.13175" lon="5.91123">
        <ele>2015</ele>
        <time>2022-06-22T19:42:03Z</time>
      </trkpt>
      <trkpt lat="45.13176" lon="5.91113">
        <ele>2017</ele>
        <time>2022-06-22T19:42:13Z</time>
      </trkpt>
      <trkpt lat="45.13182" lon="5.91103">
        <ele>2018</ele>
        <time>2022-06-22T19:42:25Z</time>
      </trkpt>
      <trkpt lat="45.13185" lon="5.91092">
        <ele>2020</ele>
        <time>2022-06-22T19:42:36Z</time>
      </trkpt>
      <trkpt lat="45.13187" lon="5.91072">
        <ele>2022</ele>
        <time>2022-06-22T19:42:55Z</time>
      </trkpt>
      <trkpt lat="45.13187" lon="5.91059">
        <ele>2023</ele>
        <time>2022-06-22T19:43:07Z</time>
      </trkpt>
      <trkpt lat="45.13185" lon="5.9105">
        <ele>2023</ele>
        <time>2022-06-22T19:43:16Z</time>
      </trkpt>
      <trkpt lat="45.13186" lon="5.91039">
        <ele>2024</ele>
        <time>2022-06-22T19:43:27Z</time>
      </trkpt>
      <trkpt lat="45.13182" lon="5.91013">
        <ele>2026</ele>
        <time>2022-06-22T19:43:52Z</time>
      </trkpt>
      <trkpt lat="45.13176" lon="5.91001">
        <ele>2027</ele>
        <time>2022-06-22T19:44:06Z</time>
      </trkpt>
      <trkpt lat="45.13174" lon="5.90995">
        <ele>2027</ele>
        <time>2022-06-22T19:44:12Z</time>
      </trkpt>
      <trkpt lat="45.13178" lon="5.90984">
        <ele>2027</ele>
        <time>2022-06-22T19:44:24Z</time>
      </trkpt>
      <trkpt lat="45.13178" lon="5.90977">
        <ele>2027</ele>
        <time>2022-06-22T19:44:30Z</time>
      </trkpt>
      <trkpt lat="45.13182" lon="5.90959">
        <ele>2026</ele>
        <time>2022-06-22T19:44:48Z</time>
      </trkpt>
      <trkpt lat="45.13181" lon="5.90947">
        <ele>2026</ele>
        <time>2022-06-22T19:44:59Z</time>
      </trkpt>
      <trkpt lat="45.13184" lon="5.90936">
        <ele>2025</ele>
        <time>2022-06-22T19:45:10Z</time>
      </trkpt>
      <trkpt lat="45.13185" lon="5.90913">
        <ele>2024</ele>
        <time>2022-06-22T19:45:32Z</time>
      </trkpt>
      <trkpt lat="45.13182" lon="5.90897">
        <ele>2024</ele>
        <time>2022-06-22T19:45:48Z</time>
      </trkpt>
      <trkpt lat="45.13184" lon="5.90887">
        <ele>2024</ele>
        <time>2022-06-22T19:45:58Z</time>
      </trkpt>
      <trkpt lat="45.13181" lon="5.90859">
        <ele>2024</ele>
        <time>2022-06-22T19:46:24Z</time>
      </trkpt>
      <trkpt lat="45.13172" lon="5.90848">
        <ele>2026</ele>
        <time>2022-06-22T19:46:40Z</time>
      </trkpt>
      <trkpt lat="45.13169" lon="5.90829">
        <ele>2027</ele>
        <time>2022-06-22T19:46:58Z</time>
      </trkpt>
      <trkpt lat="45.13172" lon="5.90822">
        <ele>2025</ele>
        <time>2022-06-22T19:47:06Z</time>
      </trkpt>
      <trkpt lat="45.13173" lon="5.90808">
        <ele>2024</ele>
        <time>2022-06-22T19:47:19Z</time>
      </trkpt>
      <trkpt lat="45.13175" lon="5.90803">
        <ele>2023</ele>
        <time>2022-06-22T19:47:25Z</time>
      </trkpt>
      <trkpt lat="45.13167" lon="5.90785">
        <ele>2024</ele>
        <time>2022-06-22T19:47:45Z</time>
      </trkpt>
      <trkpt lat="45.13167" lon="5.90776">
        <ele>2024</ele>
        <time>2022-06-22T19:47:53Z</time>
      </trkpt>
      <trkpt lat="45.13155" lon="5.90734">
        <ele>2032</ele>
        <time>2022-06-22T19:48:36Z</time>
      </trkpt>
      <trkpt lat="45.13153" lon="5.90718">
        <ele>2033</ele>
        <time>2022-06-22T19:48:51Z</time>
      </trkpt>
      <trkpt lat="45.13154" lon="5.90704">
        <ele>2032</ele>
        <time>2022-06-22T19:49:04Z</time>
      </trkpt>
      <trkpt lat="45.13151" lon="5.9066">
        <ele>2034</ele>
        <time>2022-06-22T19:49:46Z</time>
      </trkpt>
      <trkpt lat="45.13155" lon="5.90649">
        <ele>2030</ele>
        <time>2022-06-22T19:49:58Z</time>
      </trkpt>
      <trkpt lat="45.1316" lon="5.90642">
        <ele>2026</ele>
        <time>2022-06-22T19:50:07Z</time>
      </trkpt>
      <trkpt lat="45.1316" lon="5.90636">
        <ele>2025</ele>
        <time>2022-06-22T19:50:13Z</time>
      </trkpt>
      <trkpt lat="45.13158" lon="5.90632">
        <ele>2027</ele>
        <time>2022-06-22T19:50:17Z</time>
      </trkpt>
      <trkpt lat="45.13158" lon="5.9062">
        <ele>2027</ele>
        <time>2022-06-22T19:50:29Z</time>
      </trkpt>
      <trkpt lat="45.13148" lon="5.90594">
        <ele>2035</ele>
        <time>2022-06-22T19:50:57Z</time>
      </trkpt>
      <trkpt lat="45.1314" lon="5.90591">
        <ele>2041</ele>
        <time>2022-06-22T19:51:08Z</time>
      </trkpt>
      <trkpt lat="45.13136" lon="5.90572">
        <ele>2042</ele>
        <time>2022-06-22T19:51:26Z</time>
      </trkpt>
      <trkpt lat="45.13139" lon="5.90561">
        <ele>2037</ele>
        <time>2022-06-22T19:51:37Z</time>
      </trkpt>
      <trkpt lat="45.13135" lon="5.9055">
        <ele>2038</ele>
        <time>2022-06-22T19:51:49Z</time>
      </trkpt>
      <trkpt lat="45.13121" lon="5.90513">
        <ele>2040</ele>
        <time>2022-06-22T19:52:29Z</time>
      </trkpt>
      <trkpt lat="45.13113" lon="5.90477">
        <ele>2037</ele>
        <time>2022-06-22T19:53:04Z</time>
      </trkpt>
      <trkpt lat="45.13112" lon="5.9047">
        <ele>2036</ele>
        <time>2022-06-22T19:53:11Z</time>
      </trkpt>
      <trkpt lat="45.13114" lon="5.90467">
        <ele>2034</ele>
        <time>2022-06-22T19:53:15Z</time>
      </trkpt>
      <trkpt lat="45.13113" lon="5.90462">
        <ele>2034</ele>
        <time>2022-06-22T19:53:20Z</time>
      </trkpt>
      <trkpt lat="45.13116" lon="5.90448">
        <ele>2029</ele>
        <time>2022-06-22T19:53:33Z</time>
      </trkpt>
      <trkpt lat="45.13116" lon="5.90438">
        <ele>2027</ele>
        <time>2022-06-22T19:53:43Z</time>
      </trkpt>
      <trkpt lat="45.13107" lon="5.90422">
        <ele>2029</ele>
        <time>2022-06-22T19:54:02Z</time>
      </trkpt>
      <trkpt lat="45.13107" lon="5.90416">
        <ele>2027</ele>
        <time>2022-06-22T19:54:08Z</time>
      </trkpt>
      <trkpt lat="45.13105" lon="5.90411">
        <ele>2027</ele>
        <time>2022-06-22T19:54:13Z</time>
      </trkpt>
      <trkpt lat="45.13103" lon="5.90393">
        <ele>2021</ele>
        <time>2022-06-22T19:54:30Z</time>
      </trkpt>
      <trkpt lat="45.13092" lon="5.90358">
        <ele>2012</ele>
        <time>2022-06-22T19:55:06Z</time>
      </trkpt>
      <trkpt lat="45.13082" lon="5.90317">
        <ele>1997</ele>
        <time>2022-06-22T19:55:47Z</time>
      </trkpt>
      <trkpt lat="45.13067" lon="5.90295">
        <ele>1991</ele>
        <time>2022-06-22T19:56:16Z</time>
      </trkpt>
      <trkpt lat="45.13057" lon="5.90277">
        <ele>1984</ele>
        <time>2022-06-22T19:56:38Z</time>
      </trkpt>
      <trkpt lat="45.13048" lon="5.90275">
        <ele>1986</ele>
        <time>2022-06-22T19:56:50Z</time>
      </trkpt>
      <trkpt lat="45.13036" lon="5.90257">
        <ele>1980</ele>
        <time>2022-06-22T19:57:13Z</time>
      </trkpt>
      <trkpt lat="45.13021" lon="5.90227">
        <ele>1974</ele>
        <time>2022-06-22T19:57:48Z</time>
      </trkpt>
      <trkpt lat="45.13004" lon="5.90207">
        <ele>1975</ele>
        <time>2022-06-22T19:58:17Z</time>
      </trkpt>
      <trkpt lat="45.12999" lon="5.9019">
        <ele>1973</ele>
        <time>2022-06-22T19:58:34Z</time>
      </trkpt>
      <trkpt lat="45.12996" lon="5.90183">
        <ele>1975</ele>
        <time>2022-06-22T19:58:42Z</time>
      </trkpt>
      <trkpt lat="45.12996" lon="5.90177">
        <ele>1974</ele>
        <time>2022-06-22T19:58:48Z</time>
      </trkpt>
      <trkpt lat="45.12998" lon="5.90171">
        <ele>1970</ele>
        <time>2022-06-22T19:58:54Z</time>
      </trkpt>
      <trkpt lat="45.12996" lon="5.90162">
        <ele>1971</ele>
        <time>2022-06-22T19:59:03Z</time>
      </trkpt>
      <trkpt lat="45.13" lon="5.90148">
        <ele>1965</ele>
        <time>2022-06-22T19:59:17Z</time>
      </trkpt>
      <trkpt lat="45.12998" lon="5.9012">
        <ele>1965</ele>
        <time>2022-06-22T19:59:44Z</time>
      </trkpt>
      <trkpt lat="45.13009" lon="5.90057">
        <ele>1953</ele>
        <time>2022-06-22T20:00:45Z</time>
      </trkpt>
      <trkpt lat="45.13006" lon="5.90009">
        <ele>1952</ele>
        <time>2022-06-22T20:01:30Z</time>
      </trkpt>
      <trkpt lat="45.13003" lon="5.89975">
        <ele>1951</ele>
        <time>2022-06-22T20:02:02Z</time>
      </trkpt>
      <trkpt lat="45.12993" lon="5.89928">
        <ele>1951</ele>
        <time>2022-06-22T20:02:49Z</time>
      </trkpt>
      <trkpt lat="45.12981" lon="5.89899">
        <ele>1952</ele>
        <time>2022-06-22T20:03:20Z</time>
      </trkpt>
      <trkpt lat="45.12976" lon="5.89888">
        <ele>1952</ele>
        <time>2022-06-22T20:03:33Z</time>
      </trkpt>
      <trkpt lat="45.12962" lon="5.89876">
        <ele>1955</ele>
        <time>2022-06-22T20:03:54Z</time>
      </trkpt>
      <trkpt lat="45.12958" lon="5.8987">
        <ele>1955</ele>
        <time>2022-06-22T20:04:02Z</time>
      </trkpt>
      <trkpt lat="45.12945" lon="5.89838">
        <ele>1952</ele>
        <time>2022-06-22T20:04:37Z</time>
      </trkpt>
      <trkpt lat="45.12929" lon="5.89787">
        <ele>1951</ele>
        <time>2022-06-22T20:05:29Z</time>
      </trkpt>
      <trkpt lat="45.12905" lon="5.89752">
        <ele>1956</ele>
        <time>2022-06-22T20:06:15Z</time>
      </trkpt>
      <trkpt lat="45.12875" lon="5.89691">
        <ele>1953</ele>
        <time>2022-06-22T20:07:25Z</time>
      </trkpt>
      <trkpt lat="45.1287" lon="5.89683">
        <ele>1952</ele>
        <time>2022-06-22T20:07:35Z</time>
      </trkpt>
      <trkpt lat="45.12855" lon="5.89667">
        <ele>1951</ele>
        <time>2022-06-22T20:08:01Z</time>
      </trkpt>
      <trkpt lat="45.12851" lon="5.89657">
        <ele>1949</ele>
        <time>2022-06-22T20:08:11Z</time>
      </trkpt>
      <trkpt lat="45.12836" lon="5.89598">
        <ele>1938</ele>
        <time>2022-06-22T20:09:10Z</time>
      </trkpt>
      <trkpt lat="45.12831" lon="5.89588">
        <ele>1937</ele>
        <time>2022-06-22T20:09:22Z</time>
      </trkpt>
      <trkpt lat="45.12828" lon="5.89574">
        <ele>1936</ele>
        <time>2022-06-22T20:09:36Z</time>
      </trkpt>
      <trkpt lat="45.12819" lon="5.8955">
        <ele>1935</ele>
        <time>2022-06-22T20:10:01Z</time>
      </trkpt>
      <trkpt lat="45.12813" lon="5.89543">
        <ele>1935</ele>
        <time>2022-06-22T20:10:12Z</time>
      </trkpt>
      <trkpt lat="45.12808" lon="5.89517">
        <ele>1932</ele>
        <time>2022-06-22T20:10:37Z</time>
      </trkpt>
      <trkpt lat="45.12804" lon="5.8951">
        <ele>1932</ele>
        <time>2022-06-22T20:10:46Z</time>
      </trkpt>
      <trkpt lat="45.12804" lon="5.89503">
        <ele>1931</ele>
        <time>2022-06-22T20:10:52Z</time>
      </trkpt>
      <trkpt lat="45.12796" lon="5.89482">
        <ele>1929</ele>
        <time>2022-06-22T20:11:15Z</time>
      </trkpt>
      <trkpt lat="45.12793" lon="5.89473">
        <ele>1929</ele>
        <time>2022-06-22T20:11:24Z</time>
      </trkpt>
      <trkpt lat="45.12784" lon="5.89458">
        <ele>1929</ele>
        <time>2022-06-22T20:11:43Z</time>
      </trkpt>
      <trkpt lat="45.12781" lon="5.89451">
        <ele>1928</ele>
        <time>2022-06-22T20:11:50Z</time>
      </trkpt>
      <trkpt lat="45.12781" lon="5.89446">
        <ele>1928</ele>
        <time>2022-06-22T20:11:55Z</time>
      </trkpt>
      <trkpt lat="45.12778" lon="5.89442">
        <ele>1928</ele>
        <time>2022-06-22T20:12:00Z</time>
      </trkpt>
      <trkpt lat="45.12775" lon="5.8943">
        <ele>1927</ele>
        <time>2022-06-22T20:12:12Z</time>
      </trkpt>
      <trkpt lat="45.12776" lon="5.89413">
        <ele>1924</ele>
        <time>2022-06-22T20:12:28Z</time>
      </trkpt>
      <trkpt lat="45.12774" lon="5.894">
        <ele>1922</ele>
        <time>2022-06-22T20:12:41Z</time>
      </trkpt>
      <trkpt lat="45.12768" lon="5.89389">
        <ele>1922</ele>
        <time>2022-06-22T20:12:54Z</time>
      </trkpt>
      <trkpt lat="45.12762" lon="5.89368">
        <ele>1920</ele>
        <time>2022-06-22T20:13:15Z</time>
      </trkpt>
      <trkpt lat="45.12759" lon="5.89364">
        <ele>1921</ele>
        <time>2022-06-22T20:13:21Z</time>
      </trkpt>
      <trkpt lat="45.12756" lon="5.89363">
        <ele>1921</ele>
        <time>2022-06-22T20:13:25Z</time>
      </trkpt>
      <trkpt lat="45.12752" lon="5.89356">
        <ele>1921</ele>
        <time>2022-06-22T20:13:34Z</time>
      </trkpt>
      <trkpt lat="45.12746" lon="5.89342">
        <ele>1920</ele>
        <time>2022-06-22T20:13:49Z</time>
      </trkpt>
      <trkpt lat="45.12735" lon="5.89335">
        <ele>1920</ele>
        <time>2022-06-22T20:14:05Z</time>
      </trkpt>
      <trkpt lat="45.1273" lon="5.89324">
        <ele>1918</ele>
        <time>2022-06-22T20:14:17Z</time>
      </trkpt>
      <trkpt lat="45.12724" lon="5.89317">
        <ele>1917</ele>
        <time>2022-06-22T20:14:28Z</time>
      </trkpt>
      <trkpt lat="45.12723" lon="5.89315">
        <ele>1917</ele>
        <time>2022-06-22T20:14:30Z</time>
      </trkpt>
      <trkpt lat="45.12723" lon="5.89306">
        <ele>1915</ele>
        <time>2022-06-22T20:14:38Z</time>
      </trkpt>
      <trkpt lat="45.12729" lon="5.893">
        <ele>1913</ele>
        <time>2022-06-22T20:14:48Z</time>
      </trkpt>
      <trkpt lat="45.12729" lon="5.89294">
        <ele>1911</ele>
        <time>2022-06-22T20:14:54Z</time>
      </trkpt>
      <trkpt lat="45.12735" lon="5.89277">
        <ele>1906</ele>
        <time>2022-06-22T20:15:12Z</time>
      </trkpt>
      <trkpt lat="45.12733" lon="5.89271">
        <ele>1905</ele>
        <time>2022-06-22T20:15:18Z</time>
      </trkpt>
      <trkpt lat="45.12733" lon="5.89264">
        <ele>1903</ele>
        <time>2022-06-22T20:15:25Z</time>
      </trkpt>
      <trkpt lat="45.12731" lon="5.89258">
        <ele>1902</ele>
        <time>2022-06-22T20:15:31Z</time>
      </trkpt>
      <trkpt lat="45.12736" lon="5.89238">
        <ele>1896</ele>
        <time>2022-06-22T20:15:51Z</time>
      </trkpt>
      <trkpt lat="45.12731" lon="5.89231">
        <ele>1895</ele>
        <time>2022-06-22T20:16:00Z</time>
      </trkpt>
      <trkpt lat="45.12728" lon="5.89215">
        <ele>1891</ele>
        <time>2022-06-22T20:16:16Z</time>
      </trkpt>
      <trkpt lat="45.12731" lon="5.89207">
        <ele>1889</ele>
        <time>2022-06-22T20:16:24Z</time>
      </trkpt>
      <trkpt lat="45.12732" lon="5.8919">
        <ele>1884</ele>
        <time>2022-06-22T20:16:40Z</time>
      </trkpt>
      <trkpt lat="45.12727" lon="5.89173">
        <ele>1881</ele>
        <time>2022-06-22T20:16:58Z</time>
      </trkpt>
      <trkpt lat="45.12726" lon="5.89158">
        <ele>1877</ele>
        <time>2022-06-22T20:17:12Z</time>
      </trkpt>
      <trkpt lat="45.12729" lon="5.89146">
        <ele>1874</ele>
        <time>2022-06-22T20:17:24Z</time>
      </trkpt>
      <trkpt lat="45.12725" lon="5.89128">
        <ele>1871</ele>
        <time>2022-06-22T20:17:42Z</time>
      </trkpt>
      <trkpt lat="45.12725" lon="5.89119">
        <ele>1869</ele>
        <time>2022-06-22T20:17:50Z</time>
      </trkpt>
      <trkpt lat="45.12719" lon="5.89099">
        <ele>1866</ele>
        <time>2022-06-22T20:18:11Z</time>
      </trkpt>
      <trkpt lat="45.12721" lon="5.89084">
        <ele>1862</ele>
        <time>2022-06-22T20:18:25Z</time>
      </trkpt>
      <trkpt lat="45.12722" lon="5.89032">
        <ele>1855</ele>
        <time>2022-06-22T20:19:14Z</time>
      </trkpt>
      <trkpt lat="45.12714" lon="5.8899">
        <ele>1850</ele>
        <time>2022-06-22T20:19:55Z</time>
      </trkpt>
      <trkpt lat="45.12706" lon="5.88964">
        <ele>1845</ele>
        <time>2022-06-22T20:20:22Z</time>
      </trkpt>
      <trkpt lat="45.12704" lon="5.88965">
        <ele>1846</ele>
        <time>2022-06-22T20:20:25Z</time>
      </trkpt>
      <trkpt lat="45.12693" lon="5.88969">
        <ele>1848</ele>
        <time>2022-06-22T20:20:40Z</time>
      </trkpt>
      <trkpt lat="45.12668" lon="5.88953">
        <ele>1848</ele>
        <time>2022-06-22T20:21:16Z</time>
      </trkpt>
      <trkpt lat="45.12639" lon="5.88943">
        <ele>1852</ele>
        <time>2022-06-22T20:21:56Z</time>
      </trkpt>
      <trkpt lat="45.12621" lon="5.88939">
        <ele>1855</ele>
        <time>2022-06-22T20:22:20Z</time>
      </trkpt>
      <trkpt lat="45.12613" lon="5.88931">
        <ele>1855</ele>
        <time>2022-06-22T20:22:33Z</time>
      </trkpt>
      <trkpt lat="45.12607" lon="5.8892">
        <ele>1854</ele>
        <time>2022-06-22T20:22:47Z</time>
      </trkpt>
      <trkpt lat="45.12605" lon="5.88894">
        <ele>1848</ele>
        <time>2022-06-22T20:23:11Z</time>
      </trkpt>
      <trkpt lat="45.12602" lon="5.88881">
        <ele>1845</ele>
        <time>2022-06-22T20:23:24Z</time>
      </trkpt>
      <trkpt lat="45.12579" lon="5.88848">
        <ele>1839</ele>
        <time>2022-06-22T20:24:08Z</time>
      </trkpt>
      <trkpt lat="45.12555" lon="5.88821">
        <ele>1833</ele>
        <time>2022-06-22T20:24:49Z</time>
      </trkpt>
      <trkpt lat="45.12533" lon="5.88805">
        <ele>1831</ele>
        <time>2022-06-22T20:25:22Z</time>
      </trkpt>
      <trkpt lat="45.12501" lon="5.88787">
        <ele>1831</ele>
        <time>2022-06-22T20:26:08Z</time>
      </trkpt>
      <trkpt lat="45.12472" lon="5.88767">
        <ele>1825</ele>
        <time>2022-06-22T20:26:51Z</time>
      </trkpt>
      <trkpt lat="45.12427" lon="5.88728">
        <ele>1816</ele>
        <time>2022-06-22T20:28:01Z</time>
      </trkpt>
      <trkpt lat="45.12414" lon="5.88703">
        <ele>1813</ele>
        <time>2022-06-22T20:28:30Z</time>
      </trkpt>
      <trkpt lat="45.12413" lon="5.88683">
        <ele>1811</ele>
        <time>2022-06-22T20:28:49Z</time>
      </trkpt>
      <trkpt lat="45.12426" lon="5.88586">
        <ele>1797</ele>
        <time>2022-06-22T20:30:22Z</time>
      </trkpt>
      <trkpt lat="45.12423" lon="5.88583">
        <ele>1798</ele>
        <time>2022-06-22T20:30:27Z</time>
      </trkpt>
      <trkpt lat="45.12389" lon="5.88549">
        <ele>1793</ele>
        <time>2022-06-22T20:31:23Z</time>
      </trkpt>
      <trkpt lat="45.1238" lon="5.88545">
        <ele>1793</ele>
        <time>2022-06-22T20:31:35Z</time>
      </trkpt>
      <trkpt lat="45.12369" lon="5.88548">
        <ele>1795</ele>
        <time>2022-06-22T20:31:50Z</time>
      </trkpt>
      <trkpt lat="45.12356" lon="5.88557">
        <ele>1797</ele>
        <time>2022-06-22T20:32:09Z</time>
      </trkpt>
      <trkpt lat="45.12344" lon="5.88557">
        <ele>1798</ele>
        <time>2022-06-22T20:32:25Z</time>
      </trkpt>
      <trkpt lat="45.12312" lon="5.88554">
        <ele>1802</ele>
        <time>2022-06-22T20:33:08Z</time>
      </trkpt>
      <trkpt lat="45.12302" lon="5.88548">
        <ele>1802</ele>
        <time>2022-06-22T20:33:23Z</time>
      </trkpt>
      <trkpt lat="45.12283" lon="5.88532">
        <ele>1804</ele>
        <time>2022-06-22T20:33:52Z</time>
      </trkpt>
      <trkpt lat="45.12271" lon="5.88518">
        <ele>1804</ele>
        <time>2022-06-22T20:34:13Z</time>
      </trkpt>
      <trkpt lat="45.12254" lon="5.88485">
        <ele>1805</ele>
        <time>2022-06-22T20:34:51Z</time>
      </trkpt>
      <trkpt lat="45.12243" lon="5.88467">
        <ele>1806</ele>
        <time>2022-06-22T20:35:14Z</time>
      </trkpt>
      <trkpt lat="45.12223" lon="5.88445">
        <ele>1807</ele>
        <time>2022-06-22T20:35:48Z</time>
      </trkpt>
      <trkpt lat="45.12215" lon="5.88427">
        <ele>1807</ele>
        <time>2022-06-22T20:36:08Z</time>
      </trkpt>
      <trkpt lat="45.12204" lon="5.88393">
        <ele>1805</ele>
        <time>2022-06-22T20:36:43Z</time>
      </trkpt>
      <trkpt lat="45.12204" lon="5.88377">
        <ele>1803</ele>
        <time>2022-06-22T20:36:58Z</time>
      </trkpt>
      <trkpt lat="45.12206" lon="5.88365">
        <ele>1802</ele>
        <time>2022-06-22T20:37:10Z</time>
      </trkpt>
      <trkpt lat="45.12219" lon="5.88323">
        <ele>1796</ele>
        <time>2022-06-22T20:37:53Z</time>
      </trkpt>
      <trkpt lat="45.12219" lon="5.88311">
        <ele>1795</ele>
        <time>2022-06-22T20:38:04Z</time>
      </trkpt>
      <trkpt lat="45.12219" lon="5.88307">
        <ele>1794</ele>
        <time>2022-06-22T20:38:08Z</time>
      </trkpt>
      <trkpt lat="45.12201" lon="5.88265">
        <ele>1792</ele>
        <time>2022-06-22T20:38:54Z</time>
      </trkpt>
      <trkpt lat="45.12168" lon="5.88226">
        <ele>1794</ele>
        <time>2022-06-22T20:39:51Z</time>
      </trkpt>
      <trkpt lat="45.1215" lon="5.88216">
        <ele>1791</ele>
        <time>2022-06-22T20:40:17Z</time>
      </trkpt>
      <trkpt lat="45.12134" lon="5.88187">
        <ele>1787</ele>
        <time>2022-06-22T20:40:52Z</time>
      </trkpt>
      <trkpt lat="45.12115" lon="5.88171">
        <ele>1785</ele>
        <time>2022-06-22T20:41:21Z</time>
      </trkpt>
      <trkpt lat="45.12106" lon="5.88167">
        <ele>1784</ele>
        <time>2022-06-22T20:41:34Z</time>
      </trkpt>
      <trkpt lat="45.12097" lon="5.88173">
        <ele>1784</ele>
        <time>2022-06-22T20:41:47Z</time>
      </trkpt>
      <trkpt lat="45.12083" lon="5.88172">
        <ele>1783</ele>
        <time>2022-06-22T20:42:06Z</time>
      </trkpt>
      <trkpt lat="45.12065" lon="5.88162">
        <ele>1784</ele>
        <time>2022-06-22T20:42:32Z</time>
      </trkpt>
      <trkpt lat="45.1204" lon="5.88168">
        <ele>1786</ele>
        <time>2022-06-22T20:43:06Z</time>
      </trkpt>
      <trkpt lat="45.12012" lon="5.88164">
        <ele>1788</ele>
        <time>2022-06-22T20:43:43Z</time>
      </trkpt>
      <trkpt lat="45.11938" lon="5.88114">
        <ele>1793</ele>
        <time>2022-06-22T20:45:32Z</time>
      </trkpt>
      <trkpt lat="45.11881" lon="5.88067">
        <ele>1792</ele>
        <time>2022-06-22T20:47:00Z</time>
      </trkpt>
      <trkpt lat="45.11863" lon="5.88069">
        <ele>1794</ele>
        <time>2022-06-22T20:47:25Z</time>
      </trkpt>
      <trkpt lat="45.1184" lon="5.88065">
        <ele>1796</ele>
        <time>2022-06-22T20:47:56Z</time>
      </trkpt>
      <trkpt lat="45.11811" lon="5.88064">
        <ele>1800</ele>
        <time>2022-06-22T20:48:34Z</time>
      </trkpt>
      <trkpt lat="45.11786" lon="5.88051">
        <ele>1801</ele>
        <time>2022-06-22T20:49:10Z</time>
      </trkpt>
      <trkpt lat="45.11769" lon="5.88035">
        <ele>1801</ele>
        <time>2022-06-22T20:49:37Z</time>
      </trkpt>
      <trkpt lat="45.11756" lon="5.88019">
        <ele>1800</ele>
        <time>2022-06-22T20:50:00Z</time>
      </trkpt>
      <trkpt lat="45.11737" lon="5.87987">
        <ele>1796</ele>
        <time>2022-06-22T20:50:39Z</time>
      </trkpt>
      <trkpt lat="45.11727" lon="5.87974">
        <ele>1795</ele>
        <time>2022-06-22T20:50:57Z</time>
      </trkpt>
      <trkpt lat="45.11652" lon="5.87957">
        <ele>1802</ele>
        <time>2022-06-22T20:52:39Z</time>
      </trkpt>
      <trkpt lat="45.11574" lon="5.87944">
        <ele>1803</ele>
        <time>2022-06-22T20:54:24Z</time>
      </trkpt>
      <trkpt lat="45.11555" lon="5.87944">
        <ele>1804</ele>
        <time>2022-06-22T20:54:49Z</time>
      </trkpt>
      <trkpt lat="45.11515" lon="5.8794">
        <ele>1806</ele>
        <time>2022-06-22T20:55:42Z</time>
      </trkpt>
      <trkpt lat="45.11499" lon="5.87936">
        <ele>1806</ele>
        <time>2022-06-22T20:56:04Z</time>
      </trkpt>
      <trkpt lat="45.11473" lon="5.8794">
        <ele>1806</ele>
        <time>2022-06-22T20:56:39Z</time>
      </trkpt>
      <trkpt lat="45.11474" lon="5.87945">
        <ele>1807</ele>
        <time>2022-06-22T20:56:44Z</time>
      </trkpt>
      <trkpt lat="45.11473" lon="5.8794">
        <ele>1806</ele>
        <time>2022-06-22T20:56:49Z</time>
      </trkpt>
      <trkpt lat="45.1142" lon="5.87949">
        <ele>1805</ele>
        <time>2022-06-22T20:58:00Z</time>
      </trkpt>
      <trkpt lat="45.11419" lon="5.87946">
        <ele>1804</ele>
        <time>2022-06-22T20:58:03Z</time>
      </trkpt>
      <trkpt lat="45.11407" lon="5.87949">
        <ele>1804</ele>
        <time>2022-06-22T20:58:19Z</time>
      </trkpt>
      <trkpt lat="45.11391" lon="5.87944">
        <ele>1802</ele>
        <time>2022-06-22T20:58:41Z</time>
      </trkpt>
      <trkpt lat="45.11365" lon="5.87936">
        <ele>1799</ele>
        <time>2022-06-22T20:59:17Z</time>
      </trkpt>
      <trkpt lat="45.11357" lon="5.87936">
        <ele>1799</ele>
        <time>2022-06-22T20:59:28Z</time>
      </trkpt>
      <trkpt lat="45.11346" lon="5.87931">
        <ele>1797</ele>
        <time>2022-06-22T20:59:43Z</time>
      </trkpt>
      <trkpt lat="45.11327" lon="5.87926">
        <ele>1795</ele>
        <time>2022-06-22T21:00:09Z</time>
      </trkpt>
      <trkpt lat="45.11299" lon="5.87911">
        <ele>1792</ele>
        <time>2022-06-22T21:00:49Z</time>
      </trkpt>
      <trkpt lat="45.11258" lon="5.87904">
        <ele>1788</ele>
        <time>2022-06-22T21:01:44Z</time>
      </trkpt>
      <trkpt lat="45.1125" lon="5.87905">
        <ele>1788</ele>
        <time>2022-06-22T21:01:54Z</time>
      </trkpt>
      <trkpt lat="45.11225" lon="5.87907">
        <ele>1786</ele>
        <time>2022-06-22T21:02:28Z</time>
      </trkpt>
      <trkpt lat="45.11225" lon="5.87863">
        <ele>1783</ele>
        <time>2022-06-22T21:03:09Z</time>
      </trkpt>
      <trkpt lat="45.11185" lon="5.87879">
        <ele>1781</ele>
        <time>2022-06-22T21:04:05Z</time>
      </trkpt>
      <trkpt lat="45.11171" lon="5.87882">
        <ele>1780</ele>
        <time>2022-06-22T21:04:24Z</time>
      </trkpt>
      <trkpt lat="45.11163" lon="5.87878">
        <ele>1780</ele>
        <time>2022-06-22T21:04:35Z</time>
      </trkpt>
      <trkpt lat="45.11156" lon="5.87873">
        <ele>1779</ele>
        <time>2022-06-22T21:04:45Z</time>
      </trkpt>
      <trkpt lat="45.11152" lon="5.87862">
        <ele>1778</ele>
        <time>2022-06-22T21:04:57Z</time>
      </trkpt>
      <trkpt lat="45.11154" lon="5.87834">
        <ele>1775</ele>
        <time>2022-06-22T21:05:24Z</time>
      </trkpt>
      <trkpt lat="45.11162" lon="5.87806">
        <ele>1773</ele>
        <time>2022-06-22T21:05:52Z</time>
      </trkpt>
      <trkpt lat="45.11179" lon="5.87786">
        <ele>1772</ele>
        <time>2022-06-22T21:06:22Z</time>
      </trkpt>
      <trkpt lat="45.11174" lon="5.87776">
        <ele>1771</ele>
        <time>2022-06-22T21:06:33Z</time>
      </trkpt>
      <trkpt lat="45.11167" lon="5.87772">
        <ele>1770</ele>
        <time>2022-06-22T21:06:43Z</time>
      </trkpt>
      <trkpt lat="45.11165" lon="5.87769">
        <ele>1770</ele>
        <time>2022-06-22T21:06:47Z</time>
      </trkpt>
      <trkpt lat="45.11143" lon="5.87757">
        <ele>1767</ele>
        <time>2022-06-22T21:07:19Z</time>
      </trkpt>
      <trkpt lat="45.11131" lon="5.87746">
        <ele>1764</ele>
        <time>2022-06-22T21:07:38Z</time>
      </trkpt>
      <trkpt lat="45.11123" lon="5.87724">
        <ele>1761</ele>
        <time>2022-06-22T21:08:01Z</time>
      </trkpt>
      <trkpt lat="45.11125" lon="5.87715">
        <ele>1760</ele>
        <time>2022-06-22T21:08:10Z</time>
      </trkpt>
      <trkpt lat="45.11122" lon="5.87705">
        <ele>1758</ele>
        <time>2022-06-22T21:08:20Z</time>
      </trkpt>
      <trkpt lat="45.11124" lon="5.87704">
        <ele>1758</ele>
        <time>2022-06-22T21:08:23Z</time>
      </trkpt>
      <trkpt lat="45.11125" lon="5.87694">
        <ele>1757</ele>
        <time>2022-06-22T21:08:32Z</time>
      </trkpt>
      <trkpt lat="45.11129" lon="5.87687">
        <ele>1756</ele>
        <time>2022-06-22T21:08:41Z</time>
      </trkpt>
      <trkpt lat="45.11126" lon="5.87683">
        <ele>1755</ele>
        <time>2022-06-22T21:08:46Z</time>
      </trkpt>
      <trkpt lat="45.11125" lon="5.87676">
        <ele>1754</ele>
        <time>2022-06-22T21:08:53Z</time>
      </trkpt>
      <trkpt lat="45.11122" lon="5.87675">
        <ele>1754</ele>
        <time>2022-06-22T21:08:57Z</time>
      </trkpt>
      <trkpt lat="45.11123" lon="5.87669">
        <ele>1753</ele>
        <time>2022-06-22T21:09:03Z</time>
      </trkpt>
      <trkpt lat="45.11122" lon="5.87665">
        <ele>1753</ele>
        <time>2022-06-22T21:09:07Z</time>
      </trkpt>
      <trkpt lat="45.11123" lon="5.87657">
        <ele>1751</ele>
        <time>2022-06-22T21:09:15Z</time>
      </trkpt>
      <trkpt lat="45.1111" lon="5.87646">
        <ele>1749</ele>
        <time>2022-06-22T21:09:35Z</time>
      </trkpt>
      <trkpt lat="45.11107" lon="5.87638">
        <ele>1748</ele>
        <time>2022-06-22T21:09:43Z</time>
      </trkpt>
      <trkpt lat="45.11108" lon="5.87593">
        <ele>1742</ele>
        <time>2022-06-22T21:10:26Z</time>
      </trkpt>
      <trkpt lat="45.11103" lon="5.87592">
        <ele>1742</ele>
        <time>2022-06-22T21:10:33Z</time>
      </trkpt>
      <trkpt lat="45.11088" lon="5.87592">
        <ele>1742</ele>
        <time>2022-06-22T21:10:53Z</time>
      </trkpt>
      <trkpt lat="45.11064" lon="5.87587">
        <ele>1743</ele>
        <time>2022-06-22T21:11:25Z</time>
      </trkpt>
      <trkpt lat="45.11039" lon="5.87575">
        <ele>1743</ele>
        <time>2022-06-22T21:12:00Z</time>
      </trkpt>
      <trkpt lat="45.11026" lon="5.87572">
        <ele>1743</ele>
        <time>2022-06-22T21:12:18Z</time>
      </trkpt>
      <trkpt lat="45.11017" lon="5.87576">
        <ele>1745</ele>
        <time>2022-06-22T21:12:30Z</time>
      </trkpt>
      <trkpt lat="45.1089" lon="5.87565">
        <ele>1744</ele>
        <time>2022-06-22T21:15:20Z</time>
      </trkpt>
      <trkpt lat="45.10867" lon="5.87563">
        <ele>1744</ele>
        <time>2022-06-22T21:15:51Z</time>
      </trkpt>
      <trkpt lat="45.10853" lon="5.87555">
        <ele>1743</ele>
        <time>2022-06-22T21:16:11Z</time>
      </trkpt>
      <trkpt lat="45.10765" lon="5.87547">
        <ele>1742</ele>
        <time>2022-06-22T21:18:09Z</time>
      </trkpt>
      <trkpt lat="45.10758" lon="5.87542">
        <ele>1742</ele>
        <time>2022-06-22T21:18:19Z</time>
      </trkpt>
      <trkpt lat="45.10754" lon="5.87533">
        <ele>1740</ele>
        <time>2022-06-22T21:18:29Z</time>
      </trkpt>
      <trkpt lat="45.10749" lon="5.87531">
        <ele>1740</ele>
        <time>2022-06-22T21:18:36Z</time>
      </trkpt>
      <trkpt lat="45.10746" lon="5.87529">
        <ele>1739</ele>
        <time>2022-06-22T21:18:40Z</time>
      </trkpt>
      <trkpt lat="45.10657" lon="5.87539">
        <ele>1737</ele>
        <time>2022-06-22T21:20:40Z</time>
      </trkpt>
      <trkpt lat="45.1065" lon="5.87553">
        <ele>1739</ele>
        <time>2022-06-22T21:20:56Z</time>
      </trkpt>
      <trkpt lat="45.10552" lon="5.87573">
        <ele>1733</ele>
        <time>2022-06-22T21:23:08Z</time>
      </trkpt>
      <trkpt lat="45.10517" lon="5.87588">
        <ele>1732</ele>
        <time>2022-06-22T21:23:57Z</time>
      </trkpt>
      <trkpt lat="45.10512" lon="5.87595">
        <ele>1732</ele>
        <time>2022-06-22T21:24:06Z</time>
      </trkpt>
      <trkpt lat="45.10484" lon="5.87649">
        <ele>1733</ele>
        <time>2022-06-22T21:25:09Z</time>
      </trkpt>
      <trkpt lat="45.10479" lon="5.87661">
        <ele>1733</ele>
        <time>2022-06-22T21:25:22Z</time>
      </trkpt>
    </trkseg>
  </trk>
</gpx>